N4ASP-13 Weather Reports


time (UTC)temp
F
wind
direction
speed
knots
gust
knots
rain 1hr
in
rain 24hr
in
rain mn
in
humidity
%
barometer
mb
20260904210124 84 326 3.5 7.8 0.00 0.00 0.00 76 1017.4
20260904210024 84 325 2.6 7.8 0.00 0.00 0.00 76 1017.4
20260904205924 84 331 2.6 7.8 0.00 0.00 0.00 76 1017.3
20260904205815 83 326 2.6 7.0 0.00 0.00 0.00 76 1017.2
20260904205714 83 355 2.6 7.0 0.00 0.00 0.00 75 1017.1
20260904205615 83 343 2.6 7.0 0.00 0.00 0.00 75 1017.1
20260904205514 83 342 3.5 7.0 0.00 0.00 0.00 76 1017.0
20260904205414 83 346 3.5 7.0 0.00 0.00 0.00 76 1017.1
20260904205308 83 310 3.5 7.0 0.00 0.00 0.00 76 1017.2
20260904205208 83 310 3.5 7.0 0.00 0.00 0.00 76 1017.2
20260904205108 83 338 3.5 7.0 0.00 0.00 0.00 77 1017.2
20260904205008 83 346 3.5 7.0 0.00 0.00 0.00 77 1017.3
20260904204909 83 318 3.5 7.0 0.00 0.00 0.00 76 1017.5
20260904204802 83 344 3.5 7.0 0.00 0.00 0.00 76 1017.5
20260904204702 83 346 3.5 7.0 0.00 0.00 0.00 75 1017.5
20260904204603 83 355 3.5 7.0 0.00 0.00 0.00 76 1017.6
20260904204502 83 313 4.3 7.8 0.00 0.00 0.00 75 1017.6
20260904204402 83 294 4.3 7.8 0.00 0.00 0.00 75 1017.6
20260904204253 83 312 3.5 7.8 0.00 0.00 0.00 77 1017.6
20260904204152 83 295 3.5 7.8 0.00 0.00 0.00 75 1017.7
20260904204053 82 326 3.5 7.8 0.00 0.00 0.00 75 1017.7
20260904203951 82 335 3.5 7.8 0.00 0.00 0.00 75 1017.8
20260904203853 83 322 4.3 7.8 0.00 0.00 0.00 75 1017.9
20260904203746 83 351 4.3 8.7 0.00 0.00 0.00 74 1018.0
20260904203646 83 338 4.3 8.7 0.00 0.00 0.00 74 1017.9
20260904203547 83 338 4.3 8.7 0.00 0.00 0.00 74 1017.9
20260904203447 83 348 3.5 8.7 0.00 0.00 0.00 74 1017.9
20260904203347 83 340 3.5 8.7 0.00 0.00 0.00 74 1017.8
20260904203243 83 346 3.5 8.7 0.00 0.00 0.00 73 1017.8
20260904203140 83 41 4.3 8.7 0.00 0.00 0.00 74 1017.8
20260904203042 83 350 4.3 8.7 0.00 0.00 0.00 73 1017.8
20260904202940 84 338 4.3 8.7 0.00 0.00 0.00 73 1017.8
20260904202841 84 324 4.3 8.7 0.00 0.00 0.00 72 1017.8
20260904202733 84 336 4.3 10.4 0.00 0.00 0.00 71 1017.7
20260904202630 84 16 4.3 11.3 0.00 0.00 0.00 71 1017.7
20260904202531 85 355 5.2 12.2 0.00 0.00 0.00 70 1017.6
20260904202430 85 61 6.1 19.1 0.00 0.00 0.00 70 1017.6
20260904202330 85 49 7.0 19.1 0.00 0.00 0.00 70 1017.7
20260904202224 86 50 7.8 19.1 0.00 0.00 0.00 69 1017.8
20260904202125 86 18 7.8 19.1 0.00 0.00 0.00 68 1017.8
20260904202024 87 325 7.8 19.1 0.00 0.00 0.00 67 1017.9
20260904201925 87 325 7.8 19.1 0.00 0.00 0.00 66 1018.0
20260904201825 88 338 7.0 19.1 0.00 0.00 0.00 66 1018.0
20260904201717 89 321 6.1 19.1 0.00 0.00 0.00 64 1018.0
20260904201619 90 323 5.2 19.1 0.00 0.00 0.00 62 1017.9
20260904201518 91 305 4.3 19.1 0.00 0.00 0.00 61 1017.9
20260904201419 92 339 3.5 17.4 0.00 0.00 0.00 59 1017.9
20260904201318 92 306 2.6 13.0 0.00 0.00 0.00 58 1017.9
20260904201210 93 18 1.7 12.2 0.00 0.00 0.00 58 1017.9
20260904201110 93 320 0.9 4.3 0.00 0.00 0.00 57 1017.9
20260904201010 93 299 0.9 3.5 0.00 0.00 0.00 54 1017.9
20260904200911 93 298 0.9 3.5 0.00 0.00 0.00 54 1017.8
20260904200808 94 298 0.9 3.5 0.00 0.00 0.00 56 1017.8
20260904200702 94 298 0.9 3.5 0.00 0.00 0.00 55 1017.8
20260904200602 94 298 0.9 3.5 0.00 0.00 0.00 55 1017.8
20260904200503 94 298 0.9 3.5 0.00 0.00 0.00 55 1017.7
20260904200403 94 166 0.9 3.5 0.00 0.00 0.00 58 1017.7
20260904200302 94 164 0.9 3.5 0.00 0.00 0.00 55 1017.7
20260904200202 94 164 0.9 3.5 0.00 0.00 0.00 56 1017.7
20260904200100 93 164 0.9 3.5 0.00 0.00 0.00 54 1017.7
20260904195959 93 164 0.9 3.5 0.00 0.00 0.00 54 1017.7
20260904195859 93 164 0.9 3.5 0.00 0.00 0.00 54 1017.7
20260904195800 93 164 0.0 3.5 0.00 0.00 0.00 57 1017.6
20260904195701 93 163 0.0 3.5 0.00 0.00 0.00 57 1017.6
20260904195559 93 163 0.0 3.5 0.00 0.00 0.00 56 1017.5
20260904195456 93 163 0.0 3.5 0.00 0.00 0.00 55 1017.5
20260904195356 93 163 0.0 3.5 0.00 0.00 0.00 56 1017.4
20260904195254 93 95 0.0 0.0 0.00 0.00 0.00 60 1017.5
20260904195154 93 82 0.0 0.0 0.00 0.00 0.00 58 1017.4
20260904195052 92 82 0.0 0.0 0.00 0.00 0.00 55 1017.6
20260904194952 92 82 0.0 0.0 0.00 0.00 0.00 55 1017.6
20260904194853 92 82 0.0 0.0 0.00 0.00 0.00 56 1017.6
20260904194752 92 82 0.0 0.0 0.00 0.00 0.00 55 1017.7
20260904194652 92 82 0.0 0.0 0.00 0.00 0.00 54 1017.7
20260904194550 92 150 0.0 0.0 0.00 0.00 0.00 54 1017.8
20260904194451 92 150 0.0 0.0 0.00 0.00 0.00 55 1017.8
20260904194347 92 150 0.0 0.0 0.00 0.00 0.00 54 1017.7
20260904194249 92 150 0.0 0.0 0.00 0.00 0.00 55 1017.7
20260904194146 92 144 0.0 0.0 0.00 0.00 0.00 58 1017.7
20260904194047 92 171 0.0 0.0 0.00 0.00 0.00 56 1017.7
20260904193945 92 153 0.0 0.0 0.00 0.00 0.00 56 1017.6
20260904193843 92 152 0.0 0.0 0.00 0.00 0.00 58 1017.7
20260904193743 92 153 0.0 0.0 0.00 0.00 0.00 59 1017.6
20260904193641 92 153 0.0 0.0 0.00 0.00 0.00 60 1017.6
20260904193541 92 123 0.0 0.0 0.00 0.00 0.00 58 1017.6
20260904193440 92 114 0.0 0.0 0.00 0.00 0.00 58 1017.6
20260904193339 92 110 0.0 0.0 0.00 0.00 0.00 57 1017.6
20260904193235 92 117 0.0 0.0 0.00 0.00 0.00 58 1017.5
20260904193136 92 125 0.0 0.0 0.00 0.00 0.00 57 1017.5
20260904193035 92 132 0.0 0.0 0.00 0.00 0.00 56 1017.4
20260904192936 92 111 0.0 0.0 0.00 0.00 0.00 56 1017.4
20260904192837 92 133 0.0 0.0 0.00 0.00 0.00 56 1017.4
20260904192737 92 78 0.0 0.0 0.00 0.00 0.00 57 1017.5
20260904192636 92 123 0.0 0.0 0.00 0.00 0.00 58 1017.4
20260904192537 92 119 0.0 0.0 0.00 0.00 0.00 55 1017.4
20260904192436 92 130 0.0 0.0 0.00 0.00 0.00 56 1017.5
20260904192334 92 143 0.0 0.0 0.00 0.00 0.00 59 1017.5
20260904192233 92 142 0.0 0.0 0.00 0.00 0.00 59 1017.5
20260904192131 92 153 0.0 0.0 0.00 0.00 0.00 56 1017.6
20260904192031 92 131 0.0 0.0 0.00 0.00 0.00 58 1017.7
20260904191931 91 115 0.0 0.0 0.00 0.00 0.00 57 1017.8
20260904191827 91 116 0.0 0.0 0.00 0.00 0.00 58 1017.8
20260904191728 91 116 0.0 0.0 0.00 0.00 0.00 55 1017.9
20260904191626 91 116 0.0 0.0 0.00 0.00 0.00 57 1017.9
20260904191526 91 116 0.0 0.0 0.00 0.00 0.00 57 1018.0
20260904191424 91 116 0.0 0.0 0.00 0.00 0.00 56 1018.1
20260904191323 91 116 0.0 0.0 0.00 0.00 0.00 57 1018.1
20260904191221 91 98 0.0 0.0 0.00 0.00 0.00 55 1018.1
20260904191121 91 98 0.0 0.0 0.00 0.00 0.00 55 1018.1
20260904191023 91 98 0.0 0.0 0.00 0.00 0.00 56 1018.1
20260904190920 91 98 0.0 0.0 0.00 0.00 0.00 56 1018.2
20260904190819 91 98 0.0 0.0 0.00 0.00 0.00 58 1018.2
20260904190721 91 98 0.0 0.0 0.00 0.00 0.00 57 1018.2
20260904190619 91 98 0.0 0.0 0.00 0.00 0.00 55 1018.2
20260904190519 91 96 0.0 0.0 0.00 0.00 0.00 59 1018.2
20260904190417 91 95 0.0 0.0 0.00 0.00 0.00 56 1018.2
20260904190319 91 113 0.0 0.0 0.00 0.00 0.00 56 1018.2
20260904190219 91 113 0.0 0.0 0.00 0.00 0.00 55 1018.2
20260904190119 91 113 0.0 0.0 0.00 0.00 0.00 59 1018.3
20260904190018 91 122 0.0 0.0 0.00 0.00 0.00 57 1018.3
20260904185916 91 162 0.0 0.0 0.00 0.00 0.00 59 1018.2
20260904185816 91 162 0.0 0.0 0.00 0.00 0.00 59 1018.3
20260904185715 91 100 0.0 0.0 0.00 0.00 0.00 57 1018.2
20260904185616 91 98 0.0 0.0 0.00 0.00 0.00 59 1018.2
20260904185515 91 98 0.0 0.0 0.00 0.00 0.00 57 1018.3
20260904185414 91 98 0.0 0.0 0.00 0.00 0.00 57 1018.3
20260904185314 91 90 0.0 0.0 0.00 0.00 0.00 56 1018.3
20260904185213 91 80 0.0 0.0 0.00 0.00 0.00 55 1018.4
20260904185110 91 79 0.0 0.0 0.00 0.00 0.00 57 1018.4
20260904185004 91 80 0.0 0.0 0.00 0.00 0.00 54 1018.4
20260904184904 91 80 0.0 0.0 0.00 0.00 0.00 55 1018.4
20260904184804 91 80 0.0 0.0 0.00 0.00 0.00 56 1018.4
20260904184704 91 80 0.0 0.0 0.00 0.00 0.00 56 1018.4
20260904184605 91 62 0.0 0.0 0.00 0.00 0.00 57 1018.4
20260904184500 91 62 0.0 0.0 0.00 0.00 0.00 60 1018.4
20260904184359 91 62 0.0 0.0 0.00 0.00 0.00 56 1018.4
20260904184256 91 62 0.0 0.0 0.00 0.00 0.00 56 1018.4
20260904184157 91 62 0.0 0.0 0.00 0.00 0.00 58 1018.4
20260904184054 91 62 0.0 0.0 0.00 0.00 0.00 57 1018.6
20260904183953 91 62 0.0 0.0 0.00 0.00 0.00 58 1018.6
20260904183853 91 62 0.0 0.0 0.00 0.00 0.00 59 1018.6
20260904183752 91 62 0.0 0.0 0.00 0.00 0.00 59 1018.7
20260904183651 91 62 0.0 0.0 0.00 0.00 0.00 60 1018.7
20260904183549 91 105 0.0 0.0 0.00 0.00 0.00 61 1018.7
20260904183443 91 105 0.0 0.0 0.00 0.00 0.00 61 1018.7
20260904183345 90 105 0.0 0.0 0.00 0.00 0.00 59 1018.7
20260904183243 90 105 0.0 0.0 0.00 0.00 0.00 59 1018.8
20260904183144 90 104 0.0 0.0 0.00 0.00 0.00 58 1018.8
20260904183041 90 104 0.0 0.0 0.00 0.00 0.00 58 1018.8
20260904182942 90 104 0.0 0.0 0.00 0.00 0.00 62 1018.8
20260904182842 90 104 0.0 0.0 0.00 0.00 0.00 60 1018.8
20260904182741 90 104 0.0 0.0 0.00 0.00 0.00 60 1018.8
20260904182642 90 102 0.0 0.0 0.00 0.00 0.00 62 1018.9
20260904182541 90 102 0.0 0.0 0.00 0.00 0.00 57 1018.9
20260904182443 91 98 0.0 0.0 0.00 0.00 0.00 59 1018.9
20260904182342 91 108 0.0 0.0 0.00 0.00 0.00 60 1018.9
20260904182242 91 115 0.0 0.0 0.00 0.00 0.00 61 1018.9
20260904182141 91 169 0.0 0.0 0.00 0.00 0.00 62 1018.9
20260904182041 90 178 0.0 0.0 0.00 0.00 0.00 60 1018.9
20260904181942 90 179 0.0 0.0 0.00 0.00 0.00 62 1018.9
20260904181842 90 147 0.0 0.0 0.00 0.00 0.00 61 1018.9
20260904181741 90 136 0.0 0.0 0.00 0.00 0.00 60 1019.0
20260904181643 90 114 0.0 0.0 0.00 0.00 0.00 62 1018.9
20260904181541 90 76 0.0 0.0 0.00 0.00 0.00 60 1018.9
20260904181442 90 76 0.0 0.0 0.00 0.00 0.00 59 1019.0
20260904181343 90 76 0.0 0.0 0.00 0.00 0.00 61 1019.0
20260904181241 90 76 0.0 0.0 0.00 0.00 0.00 58 1018.9
20260904181143 90 76 0.0 0.0 0.00 0.00 0.00 61 1019.0
20260904181041 90 78 0.0 0.0 0.00 0.00 0.00 65 1018.9
20260904180943 90 36 0.0 0.0 0.00 0.00 0.00 64 1019.0
20260904180838 90 34 0.0 0.0 0.00 0.00 0.00 64 1018.9
20260904180738 90 22 0.0 0.0 0.00 0.00 0.00 64 1019.0
20260904180638 90 22 0.0 0.0 0.00 0.00 0.00 62 1018.9
20260904180537 90 22 0.0 0.0 0.00 0.00 0.00 61 1019.0
20260904180439 90 22 0.0 0.0 0.00 0.00 0.00 60 1019.0
20260904180337 90 22 0.0 0.0 0.00 0.00 0.00 60 1019.0
20260904180238 90 22 0.0 0.0 0.00 0.00 0.00 60 1019.0
20260904180137 90 22 0.0 0.0 0.00 0.00 0.00 63 1019.0
20260904180038 90 21 0.0 0.0 0.00 0.00 0.00 62 1019.1
20260904175939 90 31 0.0 0.0 0.00 0.00 0.00 63 1019.1
20260904175837 90 30 0.0 0.0 0.00 0.00 0.00 63 1019.1
20260904175737 90 32 0.0 0.0 0.00 0.00 0.00 65 1019.1
20260904175638 89 32 0.0 0.0 0.00 0.00 0.00 64 1019.1
20260904175538 89 32 0.0 0.0 0.00 0.00 0.00 63 1019.2
20260904175437 89 63 0.0 0.0 0.00 0.00 0.00 64 1019.2
20260904175338 89 80 0.0 0.0 0.00 0.00 0.00 63 1019.2
20260904175243 89 81 0.0 0.0 0.00 0.00 0.00 62 1019.1
20260904175138 89 82 0.0 0.0 0.00 0.00 0.00 62 1019.1
20260904175037 89 84 0.0 0.0 0.00 0.00 0.00 62 1019.2
20260904174939 89 63 0.0 0.0 0.00 0.00 0.00 61 1019.2
20260904174837 90 60 0.0 0.0 0.00 0.00 0.00 64 1019.3
20260904174738 89 33 0.0 0.0 0.00 0.00 0.00 65 1019.2
20260904174638 89 37 0.0 0.0 0.00 0.00 0.00 63 1019.3
20260904174538 89 37 0.0 0.0 0.00 0.00 0.00 63 1019.3
20260904174437 89 34 0.0 0.0 0.00 0.00 0.00 62 1019.3
20260904174339 89 34 0.0 0.0 0.00 0.00 0.00 62 1019.2
20260904174237 89 34 0.0 0.0 0.00 0.00 0.00 62 1019.4
20260904174139 89 63 0.0 0.0 0.00 0.00 0.00 62 1019.3
20260904174039 89 65 0.0 0.0 0.00 0.00 0.00 64 1019.4
20260904173937 89 67 0.0 0.0 0.00 0.00 0.00 61 1019.4
20260904173839 89 67 0.0 0.0 0.00 0.00 0.00 62 1019.4
20260904173737 89 67 0.0 0.0 0.00 0.00 0.00 62 1019.4
20260904173639 89 67 0.0 0.0 0.00 0.00 0.00 63 1019.4
20260904173534 89 65 0.0 0.0 0.00 0.00 0.00 64 1019.4
20260904173434 89 326 0.0 0.0 0.00 0.00 0.00 60 1019.4
20260904173333 89 326 0.0 0.0 0.00 0.00 0.00 60 1019.4
20260904173233 89 327 0.0 0.0 0.00 0.00 0.00 60 1019.4
20260904173134 89 327 0.0 0.0 0.00 0.00 0.00 62 1019.4
20260904173034 89 327 0.0 0.0 0.00 0.00 0.00 62 1019.4
20260904172933 89 327 0.0 0.0 0.00 0.00 0.00 61 1019.4
20260904172833 89 320 0.0 0.0 0.00 0.00 0.00 61 1019.4
20260904172734 89 319 0.0 0.0 0.00 0.00 0.00 63 1019.4
20260904172634 89 319 0.0 0.0 0.00 0.00 0.00 60 1019.5
20260904172534 89 318 0.0 0.0 0.00 0.00 0.00 61 1019.5
20260904172433 89 318 0.0 0.0 0.00 0.00 0.00 62 1019.5
20260904172333 90 318 0.0 0.0 0.00 0.00 0.00 60 1019.4
20260904172234 90 318 0.0 0.0 0.00 0.00 0.00 63 1019.4
20260904172133 90 319 0.0 0.0 0.00 0.00 0.00 61 1019.4
20260904172033 90 318 0.0 0.0 0.00 0.00 0.00 62 1019.4
20260904171934 90 331 0.0 0.0 0.00 0.00 0.00 61 1019.4
20260904171834 90 334 0.0 0.0 0.00 0.00 0.00 60 1019.4
20260904171734 90 334 0.0 0.0 0.00 0.00 0.00 60 1019.5
20260904171633 90 331 0.0 0.0 0.00 0.00 0.00 61 1019.5
20260904171533 90 336 0.0 0.0 0.00 0.00 0.00 63 1019.4
20260904171435 90 290 0.0 0.0 0.00 0.00 0.00 61 1019.5
20260904171333 90 291 0.0 0.0 0.00 0.00 0.00 63 1019.5
20260904171235 90 291 0.0 0.0 0.00 0.00 0.00 60 1019.6
20260904171133 90 290 0.0 0.0 0.00 0.00 0.00 62 1019.5
20260904171035 90 287 0.0 0.0 0.00 0.00 0.00 62 1019.5
20260904170934 90 286 0.0 0.0 0.00 0.00 0.00 60 1019.5
20260904170834 90 287 0.0 0.0 0.00 0.00 0.00 62 1019.5
20260904170732 90 286 0.0 0.0 0.00 0.00 0.00 63 1019.6
20260904170633 90 46 0.0 0.0 0.00 0.00 0.00 62 1019.7
20260904170533 90 46 0.0 0.0 0.00 0.00 0.00 60 1019.6
20260904170434 90 46 0.0 0.0 0.00 0.00 0.00 60 1019.6
20260904170334 90 46 0.0 0.0 0.00 0.00 0.00 60 1019.5
20260904170231 90 47 0.0 0.0 0.00 0.00 0.00 62 1019.6
20260904170129 90 104 0.0 0.0 0.00 0.00 0.00 60 1019.6
20260904170030 90 104 0.0 0.0 0.00 0.00 0.00 60 1019.6
20260904165929 90 104 0.0 0.0 0.00 0.00 0.00 61 1019.6
20260904165829 90 103 0.0 0.0 0.00 0.00 0.00 60 1019.6
20260904165731 90 103 0.0 0.0 0.00 0.00 0.00 60 1019.6
20260904165629 90 103 0.0 0.0 0.00 0.00 0.00 62 1019.6
20260904165529 90 101 0.0 0.0 0.00 0.00 0.00 62 1019.6
20260904165431 90 101 0.0 0.0 0.00 0.00 0.00 62 1019.7
20260904165331 90 101 0.0 0.0 0.00 0.00 0.00 61 1019.7
20260904165229 90 101 0.0 0.0 0.00 0.00 0.00 61 1019.7
20260904165130 90 101 0.0 0.0 0.00 0.00 0.00 61 1019.7
20260904165030 90 101 0.0 0.0 0.00 0.00 0.00 61 1019.6
20260904164930 90 101 0.0 0.0 0.00 0.00 0.00 64 1019.7
20260904164829 90 101 0.0 0.0 0.00 0.00 0.00 65 1019.7
20260904164729 89 101 0.0 0.0 0.00 0.00 0.00 63 1019.7
20260904164630 89 101 0.0 0.0 0.00 0.00 0.00 64 1019.7
20260904164531 89 101 0.0 0.0 0.00 0.00 0.00 61 1019.7
20260904164429 89 101 0.0 0.0 0.00 0.00 0.00 62 1019.8
20260904164329 89 101 0.0 0.0 0.00 0.00 0.00 62 1019.7
20260904164229 89 101 0.0 0.0 0.00 0.00 0.00 63 1019.9
20260904164131 89 101 0.0 0.0 0.00 0.00 0.00 63 1019.9
20260904164030 89 101 0.0 0.0 0.00 0.00 0.00 62 1019.9
20260904163930 89 92 0.0 0.0 0.00 0.00 0.00 64 1019.9
20260904163830 89 37 0.0 0.0 0.00 0.00 0.00 63 1019.9
20260904163731 89 37 0.0 0.0 0.00 0.00 0.00 62 1020.0
20260904163622 89 37 0.0 0.0 0.00 0.00 0.00 62 1020.0
20260904163522 89 37 0.0 0.0 0.00 0.00 0.00 64 1020.0
20260904163421 89 34 0.0 0.0 0.00 0.00 0.00 62 1019.9
20260904163321 89 28 0.0 0.0 0.00 0.00 0.00 62 1020.0
20260904163223 89 9 0.0 0.0 0.00 0.00 0.00 62 1020.0
20260904163123 89 5 0.0 0.0 0.00 0.00 0.00 62 1019.9
20260904163021 89 5 0.0 0.0 0.00 0.00 0.00 61 1020.0
20260904162921 88 5 0.0 0.0 0.00 0.00 0.00 63 1020.0
20260904162822 88 5 0.0 0.0 0.00 0.00 0.00 61 1020.0
20260904162723 88 5 0.0 0.0 0.00 0.00 0.00 61 1020.2
20260904162622 88 0 0.0 0.0 0.00 0.00 0.00 61 1020.0
20260904162521 88 0 0.0 0.0 0.00 0.00 0.00 60 1020.0
20260904162421 88 0 0.0 0.0 0.00 0.00 0.00 61 1020.2
20260904162322 88 0 0.0 0.0 0.00 0.00 0.00 62 1020.2
20260904162222 89 0 0.0 0.0 0.00 0.00 0.00 62 1020.2
20260904162122 89 0 0.0 0.0 0.00 0.00 0.00 62 1020.2
20260904162022 89 0 0.0 0.0 0.00 0.00 0.00 63 1020.2
20260904161923 89 0 0.0 0.0 0.00 0.00 0.00 64 1020.2
20260904161821 89 0 0.0 0.0 0.00 0.00 0.00 64 1020.2
20260904161722 89 0 0.0 0.0 0.00 0.00 0.00 65 1020.2
20260904161623 89 0 0.0 0.0 0.00 0.00 0.00 63 1020.3
20260904161521 89 5 0.0 0.0 0.00 0.00 0.00 63 1020.3
20260904161422 88 5 0.0 0.0 0.00 0.00 0.00 62 1020.3
20260904161322 89 5 0.0 0.0 0.00 0.00 0.00 61 1020.4
20260904161223 89 5 0.0 0.0 0.00 0.00 0.00 62 1020.4
20260904161122 89 9 0.0 0.0 0.00 0.00 0.00 64 1020.3
20260904161023 89 5 0.0 0.0 0.00 0.00 0.00 61 1020.4
20260904160921 89 5 0.0 0.0 0.00 0.00 0.00 63 1020.4
20260904160818 89 5 0.0 0.0 0.00 0.00 0.00 62 1020.4
20260904160718 89 5 0.0 0.0 0.00 0.00 0.00 62 1020.4
20260904160616 89 333 0.0 0.0 0.00 0.00 0.00 62 1020.4
20260904160514 89 333 0.0 0.0 0.00 0.00 0.00 61 1020.4
20260904160414 89 333 0.0 0.0 0.00 0.00 0.00 61 1020.4
20260904160308 89 331 0.0 0.0 0.00 0.00 0.00 62 1020.4
20260904160208 89 332 0.0 0.0 0.00 0.00 0.00 61 1020.3
20260904160106 89 342 0.0 0.0 0.00 0.00 0.00 64 1020.4
20260904160005 89 5 0.0 0.0 0.00 0.00 0.00 63 1020.3
20260904155905 89 5 0.0 0.0 0.00 0.00 0.00 63 1020.4
20260904155802 89 5 0.0 0.0 0.00 0.00 0.00 65 1020.4
20260904155702 89 0 0.0 0.0 0.00 0.00 0.00 63 1020.4
20260904155559 89 0 0.0 0.0 0.00 0.00 0.00 64 1020.3
20260904155501 89 0 0.0 0.0 0.00 0.00 0.00 63 1020.4
20260904155358 89 0 0.0 0.0 0.00 0.00 0.00 61 1020.4
20260904155257 89 0 0.0 0.0 0.00 0.00 0.00 63 1020.3
20260904155157 89 0 0.0 0.0 0.00 0.00 0.00 65 1020.3
20260904155053 88 0 0.0 0.0 0.00 0.00 0.00 64 1020.2
20260904154951 88 0 0.0 0.0 0.00 0.00 0.00 63 1020.3
20260904154848 88 0 0.0 0.0 0.00 0.00 0.00 62 1020.3
20260904154748 88 0 0.0 0.0 0.00 0.00 0.00 67 1020.3
20260904154645 88 0 0.0 0.0 0.00 0.00 0.00 69 1020.3
20260904154544 88 0 0.0 0.0 0.00 0.00 0.00 65 1020.3
20260904154444 88 0 0.0 0.0 0.00 0.00 0.00 65 1020.3
20260904154343 88 0 0.0 0.0 0.00 0.00 0.00 66 1020.3
20260904154240 88 0 0.0 0.0 0.00 0.00 0.00 67 1020.3
20260904154140 88 0 0.0 0.0 0.00 0.00 0.00 66 1020.3
20260904154038 88 0 0.0 0.0 0.00 0.00 0.00 66 1020.3
20260904153935 88 0 0.0 0.0 0.00 0.00 0.00 68 1020.2
20260904153837 88 0 0.0 0.0 0.00 0.00 0.00 67 1020.2
20260904153733 87 0 0.0 0.0 0.00 0.00 0.00 65 1020.3
20260904153635 87 0 0.0 0.0 0.00 0.00 0.00 65 1020.3
20260904153532 87 0 0.0 0.0 0.00 0.00 0.00 64 1020.3
20260904153428 87 0 0.0 0.0 0.00 0.00 0.00 66 1020.3
20260904153325 87 0 0.0 0.0 0.00 0.00 0.00 68 1020.2
20260904153225 87 0 0.0 0.0 0.00 0.00 0.00 64 1020.3
20260904153123 87 0 0.0 0.0 0.00 0.00 0.00 65 1020.3
20260904153024 87 0 0.0 0.0 0.00 0.00 0.00 65 1020.3
20260904152923 87 0 0.0 0.0 0.00 0.00 0.00 65 1020.3
20260904152820 87 0 0.0 0.0 0.00 0.00 0.00 65 1020.3
20260904152718 87 0 0.0 0.9 0.00 0.00 0.00 67 1020.3
20260904152618 87 0 0.0 0.9 0.00 0.00 0.00 67 1020.3
20260904152516 87 0 0.0 0.9 0.00 0.00 0.00 66 1020.3
20260904152415 87 0 0.0 0.9 0.00 0.00 0.00 67 1020.3
20260904152314 86 0 0.0 0.9 0.00 0.00 0.00 68 1020.3
20260904152211 86 0 0.0 0.9 0.00 0.00 0.00 69 1020.3
20260904152111 86 0 0.0 0.9 0.00 0.00 0.00 69 1020.3
20260904152009 86 0 0.0 0.9 0.00 0.00 0.00 71 1020.3
20260904151901 86 0 0.0 0.9 0.00 0.00 0.00 71 1020.2
20260904151801 86 0 0.0 0.9 0.00 0.00 0.00 70 1020.2
20260904151701 86 340 0.0 0.9 0.00 0.00 0.00 71 1020.3
20260904151600 86 340 0.0 0.9 0.00 0.00 0.00 69 1020.2
20260904151458 86 340 0.0 0.9 0.00 0.00 0.00 70 1020.2
20260904151355 85 340 0.0 0.9 0.00 0.00 0.00 72 1020.2
20260904151256 85 340 0.0 0.9 0.00 0.00 0.00 72 1020.2
20260904151155 85 340 0.0 0.9 0.00 0.00 0.00 69 1020.2
20260904151053 85 340 0.0 0.9 0.00 0.00 0.00 70 1020.3
20260904150952 85 340 0.0 2.6 0.00 0.00 0.00 71 1020.3
20260904150848 85 340 0.9 3.5 0.00 0.00 0.00 68 1020.3
20260904150746 85 340 0.9 3.5 0.00 0.00 0.00 69 1020.3
20260904150648 85 340 0.9 3.5 0.00 0.00 0.00 69 1020.3
20260904150547 85 340 1.7 4.3 0.00 0.00 0.00 70 1020.3
20260904150446 85 341 1.7 4.3 0.00 0.00 0.00 71 1020.3
20260904150341 85 341 1.7 4.3 0.00 0.00 0.00 71 1020.0
20260904150240 85 341 1.7 4.3 0.00 0.00 0.00 69 1020.2
20260904150140 85 342 1.7 4.3 0.00 0.00 0.00 69 1020.2
20260904150038 85 343 1.7 4.3 0.00 0.00 0.00 69 1020.2
20260904145935 85 343 1.7 4.3 0.00 0.00 0.00 71 1020.2
20260904145836 85 343 1.7 4.3 0.00 0.00 0.00 70 1020.2
20260904145734 85 344 1.7 4.3 0.00 0.00 0.00 71 1020.2
20260904145631 85 343 1.7 3.5 0.00 0.00 0.00 71 1020.2
20260904145532 85 342 1.7 3.5 0.00 0.00 0.00 70 1020.3
20260904145430 85 342 1.7 3.5 0.00 0.00 0.00 73 1020.3
20260904145330 85 342 1.7 3.5 0.00 0.00 0.00 73 1020.2
20260904145228 85 342 1.7 3.5 0.00 0.00 0.00 73 1020.3
20260904145124 85 342 1.7 4.3 0.00 0.00 0.00 73 1020.3
20260904145023 85 342 1.7 4.3 0.00 0.00 0.00 73 1020.3
20260904144923 85 342 2.6 4.3 0.00 0.00 0.00 72 1020.4
20260904144819 85 342 2.6 4.3 0.00 0.00 0.00 73 1020.3
20260904144719 85 341 1.7 4.3 0.00 0.00 0.00 72 1020.3
20260904144617 85 341 2.6 4.3 0.00 0.00 0.00 72 1020.3
20260904144515 84 340 2.6 4.3 0.00 0.00 0.00 73 1020.2
20260904144413 84 340 2.6 4.3 0.00 0.00 0.00 71 1020.4
20260904144311 84 340 2.6 4.3 0.00 0.00 0.00 73 1020.3
20260904144207 85 344 2.6 3.5 0.00 0.00 0.00 73 1020.4
20260904144109 85 355 2.6 3.5 0.00 0.00 0.00 72 1020.3
20260904144008 85 355 2.6 3.5 0.00 0.00 0.00 72 1020.3
20260904143907 85 347 2.6 3.5 0.00 0.00 0.00 72 1020.3
20260904143804 85 344 2.6 3.5 0.00 0.00 0.00 72 1020.3
20260904143701 85 344 2.6 3.5 0.00 0.00 0.00 71 1020.3
20260904143601 85 21 1.7 3.5 0.00 0.00 0.00 72 1020.3
20260904143501 85 31 1.7 3.5 0.00 0.00 0.00 72 1020.3
20260904143401 85 31 1.7 3.5 0.00 0.00 0.00 73 1020.3
20260904143255 85 32 0.9 3.5 0.00 0.00 0.00 72 1020.2
20260904143156 85 328 0.9 3.5 0.00 0.00 0.00 73 1020.3
20260904143057 85 325 0.9 3.5 0.00 0.00 0.00 72 1020.3
20260904142954 85 325 0.9 3.5 0.00 0.00 0.00 73 1020.3
20260904142851 85 325 0.9 3.5 0.00 0.00 0.00 71 1020.3
20260904142749 85 325 0.0 3.5 0.00 0.00 0.00 72 1020.2
20260904142647 85 325 0.0 2.6 0.00 0.00 0.00 71 1020.2
20260904142549 85 340 0.0 0.9 0.00 0.00 0.00 71 1020.3
20260904142448 85 5 0.0 0.9 0.00 0.00 0.00 73 1020.2
20260904142346 85 11 0.0 0.0 0.00 0.00 0.00 74 1020.2
20260904142239 85 10 0.0 0.0 0.00 0.00 0.00 74 1020.2
20260904142140 85 11 0.0 0.0 0.00 0.00 0.00 72 1020.2
20260904142039 85 11 0.0 0.0 0.00 0.00 0.00 73 1020.2
20260904141940 85 11 0.0 0.0 0.00 0.00 0.00 73 1020.2
20260904141840 85 11 0.0 0.0 0.00 0.00 0.00 73 1020.2
20260904141735 85 10 0.0 0.9 0.00 0.00 0.00 74 1020.2
20260904141634 85 9 0.0 0.9 0.00 0.00 0.00 72 1020.2
20260904141533 85 9 0.0 0.9 0.00 0.00 0.00 72 1020.2
20260904141432 85 9 0.0 0.9 0.00 0.00 0.00 72 1020.2
20260904141330 85 9 0.0 1.7 0.00 0.00 0.00 72 1020.2
20260904141227 85 5 0.0 1.7 0.00 0.00 0.00 71 1020.2
20260904141126 85 5 0.0 1.7 0.00 0.00 0.00 72 1020.2
20260904141026 85 5 0.0 1.7 0.00 0.00 0.00 72 1020.2
20260904140925 85 5 0.0 1.7 0.00 0.00 0.00 71 1020.2
20260904140823 85 0 0.0 1.7 0.00 0.00 0.00 70 1020.2
20260904140720 85 350 0.0 1.7 0.00 0.00 0.00 75 1020.2
20260904140617 85 355 0.0 1.7 0.00 0.00 0.00 71 1020.3
20260904140518 85 355 0.0 1.7 0.00 0.00 0.00 73 1020.2
20260904140418 85 355 0.0 1.7 0.00 0.00 0.00 73 1020.3
20260904140318 85 355 0.0 0.0 0.00 0.00 0.00 72 1020.3
20260904140109 85 355 0.0 0.0 0.00 0.00 0.00 72 1020.0
20260904140008 85 355 0.0 0.0 0.00 0.00 0.00 71 1020.0
20260904135909 85 355 0.0 0.0 0.00 0.00 0.00 73 1020.0
20260904135808 85 355 0.0 0.0 0.00 0.00 0.00 72 1020.0
20260904135700 85 348 0.0 0.0 0.00 0.00 0.00 72 1020.0
20260904135601 85 330 0.0 0.0 0.00 0.00 0.00 73 1020.0
20260904135501 84 303 0.0 0.0 0.00 0.00 0.00 72 1020.0
20260904135402 84 303 0.0 0.0 0.00 0.00 0.00 73 1020.0
20260904135305 84 303 0.0 0.9 0.00 0.00 0.00 71 1020.0
20260904135158 84 303 0.0 1.7 0.00 0.00 0.00 72 1020.0
20260904135058 84 303 0.0 1.7 0.00 0.00 0.00 72 1020.0
20260904134958 84 303 0.0 1.7 0.00 0.00 0.00 72 1019.9
20260904134857 84 303 0.0 1.7 0.00 0.00 0.00 73 1019.9
20260904134755 84 303 0.9 1.7 0.00 0.00 0.00 73 1019.8
20260904134648 83 303 0.9 2.6 0.00 0.00 0.00 74 1019.8
20260904134546 83 303 0.9 2.6 0.00 0.00 0.00 72 1019.8
20260904134447 83 303 0.9 2.6 0.00 0.00 0.00 73 1019.8
20260904134348 83 295 0.9 2.6 0.00 0.00 0.00 73 1019.8
20260904134244 83 296 1.7 2.6 0.00 0.00 0.00 73 1019.8
20260904134140 83 296 1.7 2.6 0.00 0.00 0.00 74 1019.7
20260904134037 83 296 1.7 2.6 0.00 0.00 0.00 75 1019.7
20260904133938 83 296 1.7 2.6 0.00 0.00 0.00 75 1019.8
20260904133836 83 296 1.7 2.6 0.00 0.00 0.00 73 1019.8
20260904133738 83 297 1.7 2.6 0.00 0.00 0.00 73 1019.8
20260904133635 83 297 1.7 2.6 0.00 0.00 0.00 73 1019.8
20260904133531 83 297 1.7 2.6 0.00 0.00 0.00 73 1019.8
20260904133432 83 298 1.7 2.6 0.00 0.00 0.00 73 1019.8
20260904133331 83 309 1.7 2.6 0.00 0.00 0.00 75 1019.7
20260904133232 83 311 1.7 2.6 0.00 0.00 0.00 75 1019.8
20260904133122 83 292 1.7 2.6 0.00 0.00 0.00 75 1019.7
20260904133022 83 292 1.7 2.6 0.00 0.00 0.00 74 1019.7
20260904132921 83 292 1.7 2.6 0.00 0.00 0.00 74 1019.6
20260904132821 83 274 1.7 2.6 0.00 0.00 0.00 75 1019.7
20260904132721 83 299 1.7 2.6 0.00 0.00 0.00 75 1019.7
20260904132617 83 299 1.7 2.6 0.00 0.00 0.00 74 1019.9
20260904132516 83 300 1.7 3.5 0.00 0.00 0.00 75 1019.7
20260904132416 83 303 1.7 4.3 0.00 0.00 0.00 75 1019.7
20260904132316 83 303 1.7 4.3 0.00 0.00 0.00 75 1019.8
20260904132216 82 302 1.7 4.3 0.00 0.00 0.00 76 1019.7
20260904132114 82 302 1.7 4.3 0.00 0.00 0.00 76 1019.8
20260904132014 82 302 1.7 4.3 0.00 0.00 0.00 76 1019.8
20260904131911 82 302 1.7 4.3 0.00 0.00 0.00 74 1019.8
20260904131812 82 300 1.7 4.3 0.00 0.00 0.00 75 1019.7
20260904131709 82 300 1.7 4.3 0.00 0.00 0.00 74 1019.7
20260904131601 82 298 0.9 4.3 0.00 0.00 0.00 73 1019.8
20260904131501 82 294 0.9 4.3 0.00 0.00 0.00 75 1019.8
20260904131359 82 294 0.9 2.6 0.00 0.00 0.00 76 1019.7
20260904131300 82 294 0.9 2.6 0.00 0.00 0.00 76 1019.8
20260904131200 82 294 0.9 3.5 0.00 0.00 0.00 76 1019.8
20260904131053 82 294 0.9 5.2 0.00 0.00 0.00 77 1019.7
20260904130956 82 294 0.9 5.2 0.00 0.00 0.00 77 1019.8
20260904130854 82 294 0.9 5.2 0.00 0.00 0.00 77 1019.8
20260904130754 82 294 0.9 5.2 0.00 0.00 0.00 77 1019.8
20260904130654 82 294 0.9 5.2 0.00 0.00 0.00 78 1019.8
20260904130548 82 294 0.9 5.2 0.00 0.00 0.00 77 1019.8
20260904130447 82 294 0.9 5.2 0.00 0.00 0.00 77 1019.7
20260904130348 82 294 0.9 5.2 0.00 0.00 0.00 77 1019.8
20260904130249 82 295 0.9 5.2 0.00 0.00 0.00 77 1019.8
20260904130148 81 261 0.9 2.6 0.00 0.00 0.00 78 1019.8
20260904130042 81 284 0.9 2.6 0.00 0.00 0.00 77 1019.8
20260904125942 81 284 0.9 2.6 0.00 0.00 0.00 78 1019.7
20260904125840 81 267 0.9 2.6 0.00 0.00 0.00 78 1019.7
20260904125740 81 289 0.9 2.6 0.00 0.00 0.00 79 1019.7
20260904125638 81 289 1.7 2.6 0.00 0.00 0.00 78 1019.8
20260904125534 81 289 1.7 2.6 0.00 0.00 0.00 78 1019.7
20260904125432 81 289 1.7 2.6 0.00 0.00 0.00 78 1019.8
20260904125330 81 285 1.7 2.6 0.00 0.00 0.00 78 1019.8
20260904125231 81 284 1.7 2.6 0.00 0.00 0.00 77 1019.8
20260904125132 81 274 1.7 2.6 0.00 0.00 0.00 78 1019.7
20260904125029 81 226 1.7 2.6 0.00 0.00 0.00 78 1019.7
20260904124927 81 225 1.7 2.6 0.00 0.00 0.00 78 1019.7
20260904124828 81 239 1.7 2.6 0.00 0.00 0.00 78 1019.8
20260904124728 81 290 1.7 2.6 0.00 0.00 0.00 79 1019.7
20260904124625 81 290 1.7 2.6 0.00 0.00 0.00 79 1019.6
20260904124519 81 290 0.9 2.6 0.00 0.00 0.00 79 1019.7
20260904124415 81 290 0.9 2.6 0.00 0.00 0.00 79 1019.7
20260904124316 81 290 0.9 2.6 0.00 0.00 0.00 79 1019.7
20260904124215 81 310 0.9 2.6 0.00 0.00 0.00 79 1019.7
20260904124116 81 310 0.9 2.6 0.00 0.00 0.00 79 1019.6
20260904124012 81 309 0.9 2.6 0.00 0.00 0.00 79 1019.7
20260904123910 81 310 0.9 2.6 0.00 0.00 0.00 79 1019.7
20260904123809 81 311 0.9 2.6 0.00 0.00 0.00 79 1019.6
20260904123710 80 311 0.9 2.6 0.00 0.00 0.00 80 1019.6
20260904123610 80 311 0.9 2.6 0.00 0.00 0.00 80 1019.6
20260904123506 80 117 0.9 2.6 0.00 0.00 0.00 80 1019.6
20260904123403 80 117 0.9 2.6 0.00 0.00 0.00 80 1019.6
20260904123304 80 157 0.9 2.6 0.00 0.00 0.00 79 1019.6
20260904123203 80 157 0.9 2.6 0.00 0.00 0.00 79 1019.7
20260904123103 80 155 0.9 2.6 0.00 0.00 0.00 80 1019.7
20260904122958 80 155 0.9 2.6 0.00 0.00 0.00 80 1019.7
20260904122858 80 155 0.9 2.6 0.00 0.00 0.00 80 1019.7
20260904122757 80 155 0.9 2.6 0.00 0.00 0.00 80 1019.7
20260904122655 80 155 0.9 2.6 0.00 0.00 0.00 80 1019.7
20260904122554 80 157 0.9 2.6 0.00 0.00 0.00 80 1019.7
20260904122449 80 153 1.7 2.6 0.00 0.00 0.00 82 1019.7
20260904122347 80 153 1.7 2.6 0.00 0.00 0.00 82 1019.7
20260904122248 80 161 1.7 2.6 0.00 0.00 0.00 82 1019.8
20260904122148 80 117 1.7 2.6 0.00 0.00 0.00 82 1019.7
20260904122047 80 157 1.7 1.7 0.00 0.00 0.00 81 1019.7
20260904121944 80 153 0.9 1.7 0.00 0.00 0.00 82 1019.6
20260904121845 80 153 0.9 1.7 0.00 0.00 0.00 81 1019.6
20260904121743 80 153 0.9 3.5 0.00 0.00 0.00 81 1019.6
20260904121644 80 152 0.9 3.5 0.00 0.00 0.00 81 1019.6
20260904121541 80 153 0.9 3.5 0.00 0.00 0.00 81 1019.6
20260904121437 79 155 0.9 3.5 0.00 0.00 0.00 81 1019.6
20260904121335 79 113 0.9 3.5 0.00 0.00 0.00 81 1019.6
20260904121234 79 109 0.9 3.5 0.00 0.00 0.00 81 1019.6
20260904121133 79 110 0.9 3.5 0.00 0.00 0.00 81 1019.6
20260904121031 79 111 0.9 3.5 0.00 0.00 0.00 82 1019.5
20260904120932 79 111 0.9 3.5 0.00 0.00 0.00 81 1019.5
20260904120830 79 111 0.9 3.5 0.00 0.00 0.00 81 1019.6
20260904120728 79 109 0.9 2.6 0.00 0.00 0.00 82 1019.6
20260904120628 79 101 0.0 2.6 0.00 0.00 0.00 82 1019.6
20260904120526 79 224 0.0 2.6 0.00 0.00 0.00 81 1019.5
20260904120422 78 223 0.0 2.6 0.00 0.00 0.00 82 1019.6
20260904120324 78 214 0.0 2.6 0.00 0.00 0.00 82 1019.5
20260904120221 78 212 0.0 3.5 0.00 0.00 0.00 82 1019.5
20260904120121 78 207 0.0 3.5 0.00 0.00 0.00 82 1019.4
20260904120020 78 209 0.0 3.5 0.00 0.00 0.00 83 1019.5
20260904115913 78 208 0.9 3.5 0.00 0.00 0.00 83 1019.4
20260904115812 78 207 0.9 3.5 0.00 0.00 0.00 83 1019.4
20260904115712 78 207 0.9 3.5 0.00 0.00 0.00 83 1019.3
20260904115612 78 234 0.9 3.5 0.00 0.00 0.00 83 1019.4
20260904115509 78 232 1.7 3.5 0.00 0.00 0.00 83 1019.3
20260904115407 78 232 1.7 3.5 0.00 0.00 0.00 83 1019.3
20260904115307 78 180 1.7 3.5 0.00 0.00 0.00 83 1019.4
20260904115207 78 194 1.7 3.5 0.00 0.00 0.00 83 1019.4
20260904115106 78 194 1.7 3.5 0.00 0.00 0.00 84 1019.4
20260904115004 78 194 1.7 3.5 0.00 0.00 0.00 84 1019.3
20260904114901 77 194 1.7 3.5 0.00 0.00 0.00 84 1019.3
20260904114801 77 194 1.7 3.5 0.00 0.00 0.00 84 1019.3
20260904114659 77 194 1.7 3.5 0.00 0.00 0.00 84 1019.4
20260904114600 77 194 1.7 3.5 0.00 0.00 0.00 84 1019.4
20260904114458 77 196 1.7 3.5 0.00 0.00 0.00 84 1019.3
20260904114348 77 199 1.7 3.5 0.00 0.00 0.00 85 1019.3
20260904114248 77 221 0.9 3.5 0.00 0.00 0.00 84 1019.4
20260904114148 77 223 0.9 3.5 0.00 0.00 0.00 84 1019.3
20260904114048 77 246 0.9 3.5 0.00 0.00 0.00 85 1019.3
20260904113948 77 277 0.9 3.5 0.00 0.00 0.00 85 1019.3
20260904113844 77 74 0.9 2.6 0.00 0.00 0.00 85 1019.3
20260904113743 77 77 0.9 2.6 0.00 0.00 0.00 85 1019.3
20260904113641 77 77 0.9 3.5 0.00 0.00 0.00 85 1019.3
20260904113541 77 77 0.9 4.3 0.00 0.00 0.00 85 1019.3
20260904113441 77 172 0.9 4.3 0.00 0.00 0.00 85 1019.3
20260904113338 77 178 0.9 4.3 0.00 0.00 0.00 85 1019.2
20260904113235 77 184 1.7 4.3 0.00 0.00 0.00 85 1019.3
20260904113135 76 180 1.7 4.3 0.00 0.00 0.00 85 1019.2
20260904113035 76 180 1.7 4.3 0.00 0.00 0.00 85 1019.2
20260904112935 76 169 1.7 4.3 0.00 0.00 0.00 85 1019.2
20260904112826 76 175 1.7 4.3 0.00 0.00 0.00 85 1019.2
20260904112725 76 180 1.7 4.3 0.00 0.00 0.00 85 1019.2
20260904112626 76 178 1.7 4.3 0.00 0.00 0.00 85 1019.2
20260904112525 76 169 1.7 3.5 0.00 0.00 0.00 85 1019.2
20260904112426 76 165 0.9 3.5 0.00 0.00 0.00 85 1019.1
20260904112320 76 169 0.9 3.5 0.00 0.00 0.00 85 1019.2
20260904112219 76 181 0.9 3.5 0.00 0.00 0.00 85 1019.2
20260904112118 76 175 0.9 3.5 0.00 0.00 0.00 85 1019.2
20260904112020 76 180 0.9 3.5 0.00 0.00 0.00 85 1019.2
20260904111919 76 180 0.9 3.5 0.00 0.00 0.00 85 1019.1
20260904111816 76 184 0.0 3.5 0.00 0.00 0.00 85 1019.1
20260904111715 76 184 0.0 3.5 0.00 0.00 0.00 85 1019.1
20260904111614 76 184 0.0 1.7 0.00 0.00 0.00 85 1019.1
20260904111514 76 184 0.0 1.7 0.00 0.00 0.00 85 1019.1
20260904111414 76 184 0.0 1.7 0.00 0.00 0.00 85 1019.0
20260904111304 76 184 0.0 1.7 0.00 0.00 0.00 85 1019.0
20260904111203 76 184 0.0 1.7 0.00 0.00 0.00 85 1019.1
20260904111104 76 184 0.0 0.9 0.00 0.00 0.00 85 1019.0
20260904111002 76 184 0.0 0.9 0.00 0.00 0.00 85 1019.1
20260904110904 76 184 0.0 0.9 0.00 0.00 0.00 85 1019.1
20260904110758 76 184 0.0 0.9 0.00 0.00 0.00 85 1019.0
20260904110657 76 185 0.0 0.0 0.00 0.00 0.00 85 1019.1
20260904110556 76 176 0.0 0.0 0.00 0.00 0.00 85 1019.1
20260904110457 76 171 0.0 0.0 0.00 0.00 0.00 85 1019.0
20260904110357 76 170 0.0 0.0 0.00 0.00 0.00 85 1019.0
20260904110256 76 169 0.0 0.0 0.00 0.00 0.00 85 1019.0
20260904110156 76 168 0.0 0.0 0.00 0.00 0.00 85 1019.0
20260904110055 76 168 0.0 0.0 0.00 0.00 0.00 85 1019.0
20260904105954 76 168 0.0 0.0 0.00 0.00 0.00 85 1019.0
20260904105852 76 168 0.0 0.0 0.00 0.00 0.00 85 1019.0
20260904105746 76 169 0.0 0.0 0.00 0.00 0.00 85 1019.1
20260904105645 76 169 0.0 0.0 0.00 0.00 0.00 85 1019.0
20260904105545 76 169 0.0 0.0 0.00 0.00 0.00 85 1018.9
20260904105444 76 169 0.0 0.0 0.00 0.00 0.00 85 1019.0
20260904105341 76 170 0.0 0.0 0.00 0.00 0.00 85 1018.9
20260904105237 76 171 0.0 0.0 0.00 0.00 0.00 85 1019.0
20260904105135 76 171 0.0 0.0 0.00 0.00 0.00 85 1018.9
20260904105034 76 171 0.0 0.0 0.00 0.00 0.00 85 1019.0
20260904104937 76 171 0.0 0.0 0.00 0.00 0.00 85 1018.9
20260904104836 76 189 0.0 0.0 0.00 0.00 0.00 85 1019.0
20260904104732 76 173 0.0 0.0 0.00 0.00 0.00 85 1018.9
20260904104628 76 174 0.0 0.0 0.00 0.00 0.00 85 1018.9
20260904104530 76 174 0.0 0.0 0.00 0.00 0.00 85 1018.9
20260904104429 76 179 0.0 0.0 0.00 0.00 0.00 85 1018.8
20260904104330 76 182 0.0 0.0 0.00 0.00 0.00 85 1018.8
20260904104224 76 183 0.0 0.0 0.00 0.00 0.00 85 1018.8
20260904104124 76 184 0.0 0.0 0.00 0.00 0.00 85 1018.9
20260904104024 76 184 0.0 0.0 0.00 0.00 0.00 85 1018.9
20260904103922 76 180 0.0 0.0 0.00 0.00 0.00 85 1018.9
20260904103820 76 176 0.0 0.0 0.00 0.00 0.00 85 1018.8
20260904103714 76 205 0.0 0.0 0.00 0.00 0.00 85 1018.8
20260904103616 76 211 0.0 0.0 0.00 0.00 0.00 85 1018.9
20260904103515 76 215 0.0 0.0 0.00 0.00 0.00 85 1018.9
20260904103415 76 166 0.0 0.0 0.00 0.00 0.00 85 1018.9
20260904103314 76 166 0.0 0.0 0.00 0.00 0.00 85 1018.9
20260904103214 76 166 0.0 0.0 0.00 0.00 0.00 85 1018.8
20260904103112 76 166 0.0 0.0 0.00 0.00 0.00 85 1018.9
20260904103011 76 167 0.0 0.0 0.00 0.00 0.00 86 1018.8
20260904102910 76 147 0.0 0.0 0.00 0.00 0.00 86 1018.8
20260904102808 76 146 0.0 0.0 0.00 0.00 0.00 86 1018.8
20260904102701 76 146 0.0 0.0 0.00 0.00 0.00 85 1018.9
20260904102602 76 150 0.0 0.0 0.00 0.00 0.00 85 1018.9
20260904102501 76 150 0.0 0.0 0.00 0.00 0.00 85 1018.8
20260904102400 76 150 0.0 0.0 0.00 0.00 0.00 85 1018.7
20260904102258 76 149 0.0 0.0 0.00 0.00 0.00 85 1018.8
20260904102158 76 151 0.0 0.0 0.00 0.00 0.00 85 1018.8
20260904102054 76 150 0.0 0.0 0.00 0.00 0.00 85 1018.8
20260904101956 76 142 0.0 0.0 0.00 0.00 0.00 85 1018.8
20260904101853 76 142 0.0 0.0 0.00 0.00 0.00 85 1018.9
20260904101752 76 141 0.0 0.0 0.00 0.00 0.00 85 1018.9
20260904101650 76 140 0.0 0.0 0.00 0.00 0.00 85 1018.8
20260904101550 76 140 0.0 0.0 0.00 0.00 0.00 85 1018.8
20260904101449 76 126 0.0 0.0 0.00 0.00 0.00 85 1018.8
20260904101347 76 126 0.0 0.0 0.00 0.00 0.00 85 1018.8
20260904101248 76 126 0.0 0.0 0.00 0.00 0.00 85 1018.8
20260904101147 76 126 0.0 0.0 0.00 0.00 0.00 85 1018.9
20260904101048 76 126 0.0 0.0 0.00 0.00 0.00 85 1018.8
20260904100945 76 127 0.0 0.0 0.00 0.00 0.00 85 1018.8
20260904100846 76 127 0.0 0.0 0.00 0.00 0.00 85 1018.8
20260904100745 76 127 0.0 0.0 0.00 0.00 0.00 85 1018.8
20260904100643 76 127 0.0 0.0 0.00 0.00 0.00 85 1018.8
20260904100542 76 127 0.0 0.0 0.00 0.00 0.00 85 1018.7
20260904100442 76 127 0.0 0.0 0.00 0.00 0.00 85 1018.8
20260904100340 76 127 0.0 0.0 0.00 0.00 0.00 85 1018.8
20260904100240 76 127 0.0 0.0 0.00 0.00 0.00 85 1018.7
20260904100137 76 127 0.0 0.0 0.00 0.00 0.00 85 1018.7
20260904100035 76 127 0.0 0.0 0.00 0.00 0.00 85 1018.7
20260904095936 76 127 0.0 0.0 0.00 0.00 0.00 85 1018.7
20260904095833 76 127 0.0 0.0 0.00 0.00 0.00 85 1018.8
20260904095733 76 130 0.0 0.0 0.00 0.00 0.00 85 1018.7
20260904095632 76 185 0.0 0.0 0.00 0.00 0.00 85 1018.8
20260904095528 76 146 0.0 0.0 0.00 0.00 0.00 85 1018.8
20260904095430 76 146 0.0 0.0 0.00 0.00 0.00 85 1018.8
20260904095326 76 146 0.0 0.0 0.00 0.00 0.00 85 1018.8
20260904095227 76 146 0.0 0.0 0.00 0.00 0.00 85 1018.8
20260904095124 76 146 0.0 0.0 0.00 0.00 0.00 85 1018.8
20260904095023 76 146 0.0 0.0 0.00 0.00 0.00 85 1018.8
20260904094923 76 146 0.0 0.0 0.00 0.00 0.00 85 1018.9
20260904094822 76 146 0.0 0.0 0.00 0.00 0.00 85 1018.8
20260904094722 76 147 0.0 0.0 0.00 0.00 0.00 85 1018.8
20260904094620 76 147 0.0 0.0 0.00 0.00 0.00 85 1018.8
20260904094516 76 147 0.0 0.0 0.00 0.00 0.00 85 1018.8
20260904094416 76 90 0.0 0.0 0.00 0.00 0.00 85 1018.8
20260904094316 76 90 0.0 0.0 0.00 0.00 0.00 85 1018.9
20260904094216 76 90 0.0 0.0 0.00 0.00 0.00 85 1018.8
20260904094115 76 201 0.0 0.0 0.00 0.00 0.00 85 1018.7
20260904094016 76 201 0.0 0.0 0.00 0.00 0.00 85 1018.7
20260904093910 76 201 0.0 0.0 0.00 0.00 0.00 85 1018.7
20260904093810 76 201 0.0 0.0 0.00 0.00 0.00 85 1018.7
20260904093709 76 201 0.0 0.0 0.00 0.00 0.00 84 1018.6
20260904093610 76 201 0.0 0.0 0.00 0.00 0.00 84 1018.6
20260904093510 76 201 0.0 0.0 0.00 0.00 0.00 84 1018.7
20260904093404 76 201 0.0 0.0 0.00 0.00 0.00 84 1018.6
20260904093302 76 201 0.0 0.0 0.00 0.00 0.00 84 1018.6
20260904093202 76 201 0.0 0.0 0.00 0.00 0.00 84 1018.6
20260904093104 76 201 0.0 0.0 0.00 0.00 0.00 84 1018.4
20260904093005 76 202 0.0 0.0 0.00 0.00 0.00 84 1018.6
20260904092859 76 202 0.0 0.0 0.00 0.00 0.00 84 1018.6
20260904092758 76 201 0.0 0.0 0.00 0.00 0.00 84 1018.4
20260904092656 76 201 0.0 0.0 0.00 0.00 0.00 84 1018.6
20260904092556 76 202 0.0 0.0 0.00 0.00 0.00 84 1018.6
20260904092453 76 202 0.0 0.0 0.00 0.00 0.00 84 1018.6
20260904092346 76 202 0.0 0.0 0.00 0.00 0.00 84 1018.6
20260904092248 76 202 0.0 0.0 0.00 0.00 0.00 84 1018.6
20260904092147 76 202 0.0 0.0 0.00 0.00 0.00 84 1018.6
20260904092046 76 202 0.0 0.0 0.00 0.00 0.00 84 1018.6
20260904091948 76 202 0.0 0.0 0.00 0.00 0.00 84 1018.4
20260904091848 76 202 0.0 0.0 0.00 0.00 0.00 84 1018.4
20260904091744 76 202 0.0 0.0 0.00 0.00 0.00 84 1018.3
20260904091646 76 202 0.0 0.0 0.00 0.00 0.00 84 1018.4
20260904091542 76 202 0.0 0.0 0.00 0.00 0.00 84 1018.4
20260904091442 77 202 0.0 0.0 0.00 0.00 0.00 84 1018.3
20260904091336 76 202 0.0 0.0 0.00 0.00 0.00 84 1018.3
20260904091235 76 202 0.0 0.0 0.00 0.00 0.00 84 1018.3
20260904091135 77 202 0.0 0.0 0.00 0.00 0.00 84 1018.3
20260904091033 77 202 0.0 0.0 0.00 0.00 0.00 84 1018.3
20260904090932 77 202 0.0 0.0 0.00 0.00 0.00 84 1018.3
20260904090832 77 202 0.0 0.0 0.00 0.00 0.00 84 1018.3
20260904090728 77 202 0.0 0.0 0.00 0.00 0.00 84 1018.3
20260904090630 77 202 0.0 0.0 0.00 0.00 0.00 84 1018.2
20260904090528 77 202 0.0 0.0 0.00 0.00 0.00 84 1018.3
20260904090425 77 202 0.0 0.0 0.00 0.00 0.00 83 1018.2
20260904090325 77 203 0.0 0.0 0.00 0.00 0.00 83 1018.3
20260904090223 77 203 0.0 0.0 0.00 0.00 0.00 83 1018.3
20260904090122 77 203 0.0 0.0 0.00 0.00 0.00 83 1018.2
20260904090022 77 203 0.0 0.0 0.00 0.00 0.00 83 1018.2
20260904085920 77 221 0.0 0.0 0.00 0.00 0.00 83 1018.2
20260904085814 77 221 0.0 0.0 0.00 0.00 0.00 83 1018.3
20260904085713 77 221 0.0 0.0 0.00 0.00 0.00 83 1018.3
20260904085612 77 221 0.0 0.0 0.00 0.00 0.00 83 1018.2
20260904085511 77 221 0.0 0.0 0.00 0.00 0.00 83 1018.2
20260904085410 77 221 0.0 0.0 0.00 0.00 0.00 83 1018.2
20260904085306 77 221 0.0 0.0 0.00 0.00 0.00 83 1018.1
20260904085205 77 221 0.0 0.0 0.00 0.00 0.00 83 1018.1
20260904085106 77 221 0.0 0.0 0.00 0.00 0.00 83 1018.1
20260904085005 77 221 0.0 0.0 0.00 0.00 0.00 83 1018.1
20260904084905 77 221 0.0 0.0 0.00 0.00 0.00 83 1018.1
20260904084805 77 221 0.0 0.0 0.00 0.00 0.00 83 1018.1
20260904084705 77 221 0.0 0.0 0.00 0.00 0.00 83 1018.1
20260904084604 77 221 0.0 0.0 0.00 0.00 0.00 83 1018.2
20260904084505 77 221 0.0 0.0 0.00 0.00 0.00 82 1018.2
20260904084405 77 221 0.0 0.0 0.00 0.00 0.00 82 1018.1
20260904084304 77 221 0.0 0.0 0.00 0.00 0.00 82 1018.1
20260904084204 77 221 0.0 0.0 0.00 0.00 0.00 82 1018.1
20260904084106 77 221 0.0 0.0 0.00 0.00 0.00 82 1018.1
20260904084006 77 222 0.0 0.0 0.00 0.00 0.00 82 1018.2
20260904083904 77 222 0.0 0.0 0.00 0.00 0.00 82 1018.2
20260904083806 77 222 0.0 0.0 0.00 0.00 0.00 82 1018.2
20260904083706 77 223 0.0 0.0 0.00 0.00 0.00 82 1018.1
20260904083601 77 220 0.0 0.0 0.00 0.00 0.00 82 1018.1
20260904083501 77 220 0.0 0.0 0.00 0.00 0.00 82 1018.1
20260904083402 77 220 0.0 0.0 0.00 0.00 0.00 82 1018.0
20260904083301 77 220 0.0 0.0 0.00 0.00 0.00 82 1018.0
20260904083159 77 220 0.0 0.0 0.00 0.00 0.00 82 1018.1
20260904083059 77 220 0.0 0.0 0.00 0.00 0.00 82 1018.0
20260904082957 77 220 0.0 0.0 0.00 0.00 0.00 81 1018.0
20260904082858 77 220 0.0 0.0 0.00 0.00 0.00 81 1018.1
20260904082754 77 220 0.0 0.0 0.00 0.00 0.00 81 1018.0
20260904082654 77 220 0.0 0.0 0.00 0.00 0.00 81 1018.0
20260904082550 77 220 0.0 0.0 0.00 0.00 0.00 81 1018.1
20260904082447 77 220 0.0 0.0 0.00 0.00 0.00 81 1018.0
20260904082346 77 220 0.0 0.0 0.00 0.00 0.00 81 1018.0
20260904082246 78 220 0.0 0.0 0.00 0.00 0.00 81 1018.1
20260904082143 77 220 0.0 0.0 0.00 0.00 0.00 81 1018.0
20260904082040 78 220 0.0 0.0 0.00 0.00 0.00 81 1018.0
20260904081938 77 220 0.0 0.0 0.00 0.00 0.00 81 1018.1
20260904081837 78 220 0.0 0.0 0.00 0.00 0.00 81 1018.0
20260904081736 78 220 0.0 0.0 0.00 0.00 0.00 81 1018.1
20260904081638 78 220 0.0 0.0 0.00 0.00 0.00 81 1018.0
20260904081538 78 220 0.0 0.0 0.00 0.00 0.00 81 1018.0
20260904081435 78 220 0.0 0.0 0.00 0.00 0.00 80 1018.1
20260904081335 78 220 0.0 0.0 0.00 0.00 0.00 80 1018.1
20260904081232 78 220 0.0 0.0 0.00 0.00 0.00 80 1018.1
20260904081132 78 220 0.0 0.0 0.00 0.00 0.00 80 1018.1
20260904081033 78 220 0.0 0.0 0.00 0.00 0.00 80 1018.2
20260904080931 78 220 0.0 0.0 0.00 0.00 0.00 80 1018.1
20260904080831 78 220 0.0 0.0 0.00 0.00 0.00 80 1018.2
20260904080730 78 220 0.0 0.0 0.00 0.00 0.00 80 1018.2
20260904080626 78 220 0.0 0.0 0.00 0.00 0.00 80 1018.2
20260904080528 78 220 0.0 0.0 0.00 0.00 0.00 80 1018.2
20260904080426 78 220 0.0 0.0 0.00 0.00 0.00 80 1018.2
20260904080326 78 220 0.0 0.0 0.00 0.00 0.00 80 1018.3
20260904080224 78 220 0.0 0.0 0.00 0.00 0.00 80 1018.2
20260904080125 78 220 0.0 0.0 0.00 0.00 0.00 80 1018.2
20260904080022 78 220 0.0 0.0 0.00 0.00 0.00 80 1018.3
20260904075924 78 220 0.0 0.0 0.00 0.00 0.00 80 1018.2
20260904075820 78 220 0.0 0.0 0.00 0.00 0.00 80 1018.2
20260904075716 78 220 0.0 0.0 0.00 0.00 0.00 80 1018.3
20260904075618 78 220 0.0 0.0 0.00 0.00 0.00 80 1018.2
20260904075518 78 220 0.0 0.0 0.00 0.00 0.00 80 1018.2
20260904075417 78 220 0.0 0.0 0.00 0.00 0.00 80 1018.2
20260904075316 78 220 0.0 0.0 0.00 0.00 0.00 80 1018.2
20260904075218 78 220 0.0 0.0 0.00 0.00 0.00 80 1018.3
20260904075117 78 220 0.0 0.0 0.00 0.00 0.00 80 1018.3
20260904075017 78 220 0.0 0.0 0.00 0.00 0.00 80 1018.3
20260904074916 78 220 0.0 0.0 0.00 0.00 0.00 80 1018.2
20260904074817 78 220 0.0 0.0 0.00 0.00 0.00 80 1018.2
20260904074717 78 220 0.0 0.0 0.00 0.00 0.00 80 1018.2
20260904074617 78 220 0.0 0.0 0.00 0.00 0.00 80 1018.2
20260904074517 78 220 0.0 0.0 0.00 0.00 0.00 80 1018.2
20260904074418 78 220 0.0 0.0 0.00 0.00 0.00 80 1018.2
20260904074316 78 220 0.0 0.0 0.00 0.00 0.00 80 1018.2
20260904074217 78 220 0.0 0.0 0.00 0.00 0.00 80 1018.2
20260904074116 78 220 0.0 0.0 0.00 0.00 0.00 80 1018.2
20260904074017 78 220 0.0 0.0 0.00 0.00 0.00 80 1018.2
20260904073917 78 220 0.0 0.0 0.00 0.00 0.00 79 1018.2
20260904073816 78 222 0.0 0.0 0.00 0.00 0.00 79 1018.2
20260904073717 78 222 0.0 0.0 0.00 0.00 0.00 79 1018.2
20260904073617 78 222 0.0 0.0 0.00 0.00 0.00 79 1018.2
20260904073518 78 222 0.0 0.0 0.00 0.00 0.00 79 1018.2
20260904073417 78 222 0.0 0.0 0.00 0.00 0.00 79 1018.2
20260904073318 78 222 0.0 0.0 0.00 0.00 0.00 79 1018.3
20260904073214 78 222 0.0 0.0 0.00 0.00 0.00 79 1018.3
20260904073112 78 222 0.0 0.0 0.00 0.00 0.00 79 1018.3
20260904073012 78 222 0.0 0.0 0.00 0.00 0.00 79 1018.3
20260904072912 78 222 0.0 0.0 0.00 0.00 0.00 79 1018.4
20260904072814 78 222 0.0 0.0 0.00 0.00 0.00 79 1018.3
20260904072712 78 222 0.0 0.0 0.00 0.00 0.00 79 1018.4
20260904072613 78 222 0.0 0.0 0.00 0.00 0.00 79 1018.3
20260904072515 78 222 0.0 0.0 0.00 0.00 0.00 79 1018.4
20260904072414 78 222 0.0 0.0 0.00 0.00 0.00 79 1018.4
20260904072312 78 222 0.0 0.0 0.00 0.00 0.00 79 1018.4
20260904072212 78 222 0.0 0.0 0.00 0.00 0.00 79 1018.4
20260904072114 78 222 0.0 0.0 0.00 0.00 0.00 79 1018.4
20260904072012 78 222 0.0 0.0 0.00 0.00 0.00 79 1018.4
20260904071913 78 222 0.0 0.0 0.00 0.00 0.00 79 1018.4
20260904071813 78 222 0.0 0.0 0.00 0.00 0.00 79 1018.4
20260904071714 78 222 0.0 0.0 0.00 0.00 0.00 79 1018.4
20260904071612 78 222 0.0 0.0 0.00 0.00 0.00 79 1018.4
20260904071514 78 222 0.0 0.0 0.00 0.00 0.00 79 1018.4
20260904071412 78 222 0.0 0.0 0.00 0.00 0.00 78 1018.4
20260904071314 78 222 0.0 0.0 0.00 0.00 0.00 78 1018.6
20260904071213 78 222 0.0 0.0 0.00 0.00 0.00 78 1018.4
20260904071113 78 222 0.0 0.0 0.00 0.00 0.00 78 1018.4
20260904071013 78 222 0.0 0.0 0.00 0.00 0.00 78 1018.4
20260904070913 78 222 0.0 0.0 0.00 0.00 0.00 78 1018.6
20260904070812 78 222 0.0 0.0 0.00 0.00 0.00 78 1018.7
20260904070713 78 222 0.0 0.0 0.00 0.00 0.00 78 1018.7
20260904070613 78 222 0.0 0.0 0.00 0.00 0.00 78 1018.6
20260904070513 78 222 0.0 0.0 0.00 0.00 0.00 78 1018.6
20260904070413 78 222 0.0 0.0 0.00 0.00 0.00 78 1018.7
20260904070312 78 222 0.0 0.0 0.00 0.00 0.00 78 1018.7
20260904070212 78 222 0.0 0.0 0.00 0.00 0.00 78 1018.7
20260904070114 78 222 0.0 0.0 0.00 0.00 0.00 78 1018.7
20260904070013 78 222 0.0 0.0 0.00 0.00 0.00 78 1018.7
20260904065914 78 222 0.0 0.0 0.00 0.00 0.00 78 1018.7
20260904065812 78 222 0.0 0.0 0.00 0.00 0.00 78 1018.7
20260904065714 78 222 0.0 0.0 0.00 0.00 0.00 78 1018.7
20260904065613 78 222 0.0 0.0 0.00 0.00 0.00 78 1018.8
20260904065512 78 222 0.0 0.0 0.00 0.00 0.00 79 1018.8
20260904065413 78 222 0.0 0.0 0.00 0.00 0.00 79 1018.8
20260904065314 78 222 0.0 0.0 0.00 0.00 0.00 79 1018.8
20260904065205 78 222 0.0 0.0 0.00 0.00 0.00 79 1018.9
20260904065105 78 222 0.0 0.0 0.00 0.00 0.00 79 1018.9
20260904065005 78 222 0.0 0.0 0.00 0.00 0.00 79 1018.9
20260904064904 78 222 0.0 0.0 0.00 0.00 0.00 79 1018.9
20260904064804 78 222 0.0 0.0 0.00 0.00 0.00 79 1019.0
20260904064706 78 222 0.0 0.0 0.00 0.00 0.00 79 1018.9
20260904064606 78 222 0.0 0.0 0.00 0.00 0.00 79 1019.0
20260904064506 78 222 0.0 0.0 0.00 0.00 0.00 79 1019.0
20260904064404 78 222 0.0 0.0 0.00 0.00 0.00 79 1019.0
20260904064306 78 222 0.0 0.0 0.00 0.00 0.00 79 1019.1
20260904064204 78 222 0.0 0.0 0.00 0.00 0.00 79 1019.1
20260904064105 78 222 0.0 0.0 0.00 0.00 0.00 79 1019.0
20260904064006 78 222 0.0 0.0 0.00 0.00 0.00 79 1019.1
20260904063904 78 222 0.0 0.0 0.00 0.00 0.00 79 1019.1
20260904063805 78 222 0.0 0.0 0.00 0.00 0.00 79 1019.2
20260904063704 78 222 0.0 0.0 0.00 0.00 0.00 79 1019.1
20260904063606 78 222 0.0 0.0 0.00 0.00 0.00 79 1019.1
20260904063505 78 222 0.0 0.0 0.00 0.00 0.00 79 1019.1
20260904063404 78 222 0.0 0.0 0.00 0.00 0.00 79 1019.2
20260904063306 78 222 0.0 0.0 0.00 0.00 0.00 79 1019.1
20260904063204 78 222 0.0 0.0 0.00 0.00 0.00 79 1019.2
20260904063105 78 222 0.0 0.0 0.00 0.00 0.00 79 1019.2
20260904063004 78 222 0.0 0.0 0.00 0.00 0.00 79 1019.2
20260904062905 78 222 0.0 0.0 0.00 0.00 0.00 79 1019.3
20260904062804 78 222 0.0 0.0 0.00 0.00 0.00 79 1019.2
20260904062706 78 222 0.0 0.0 0.00 0.00 0.00 79 1019.4
20260904062606 78 222 0.0 0.0 0.00 0.00 0.00 79 1019.3
20260904062505 78 222 0.0 0.0 0.00 0.00 0.00 79 1019.3
20260904062405 79 222 0.0 0.0 0.00 0.00 0.00 79 1019.3
20260904062306 78 222 0.0 0.0 0.00 0.00 0.00 79 1019.4
20260904062205 78 222 0.0 0.0 0.00 0.00 0.00 78 1019.3
20260904062105 78 222 0.0 0.0 0.00 0.00 0.00 79 1019.4
20260904062006 78 222 0.0 0.0 0.00 0.00 0.00 78 1019.4
20260904061900 78 222 0.0 0.0 0.00 0.00 0.00 78 1019.4
20260904061800 78 222 0.0 0.0 0.00 0.00 0.00 78 1019.4
20260904061702 78 222 0.0 0.0 0.00 0.00 0.00 78 1019.5
20260904061600 78 222 0.0 0.0 0.00 0.00 0.00 78 1019.6
20260904061502 78 222 0.0 0.0 0.00 0.00 0.00 78 1019.6
20260904061400 78 222 0.0 0.0 0.00 0.00 0.00 78 1019.6
20260904061300 78 222 0.0 0.0 0.00 0.00 0.00 78 1019.5
20260904061202 78 222 0.0 0.0 0.00 0.00 0.00 78 1019.5
20260904061101 78 222 0.0 0.0 0.00 0.00 0.00 78 1019.5
20260904061001 78 222 0.0 0.0 0.00 0.00 0.00 78 1019.5
20260904060900 78 222 0.0 0.0 0.00 0.00 0.00 78 1019.4
20260904060800 78 222 0.0 0.0 0.00 0.00 0.00 78 1019.5
20260904060700 78 222 0.0 0.0 0.00 0.00 0.00 78 1019.6
20260904060600 78 222 0.0 0.0 0.00 0.00 0.00 78 1019.4
20260904060501 78 222 0.0 0.0 0.00 0.00 0.00 78 1019.4
20260904060401 78 222 0.0 0.0 0.00 0.00 0.00 78 1019.5
20260904060300 78 222 0.0 0.0 0.00 0.00 0.00 78 1019.5
20260904060200 78 222 0.0 0.0 0.00 0.00 0.00 78 1019.5
20260904060100 78 222 0.0 0.0 0.00 0.00 0.00 78 1019.5
20260904060002 78 222 0.0 0.0 0.00 0.00 0.00 78 1019.5
20260904055900 78 222 0.0 0.0 0.00 0.00 0.00 78 1019.5
20260904055800 78 222 0.0 0.0 0.00 0.00 0.00 78 1019.5
20260904055701 78 222 0.0 0.0 0.00 0.00 0.00 78 1019.5
20260904055602 78 222 0.0 0.0 0.00 0.00 0.00 78 1019.6
20260904055502 78 222 0.0 0.0 0.00 0.00 0.00 78 1019.5
20260904055402 79 222 0.0 0.0 0.00 0.00 0.00 78 1019.6
20260904055300 78 222 0.0 0.0 0.00 0.00 0.00 78 1019.5
20260904055201 78 222 0.0 0.0 0.00 0.00 0.00 78 1019.6
20260904055102 79 222 0.0 0.0 0.00 0.00 0.00 78 1019.4
20260904055002 79 222 0.0 0.0 0.00 0.00 0.00 79 1019.5
20260904054900 79 222 0.0 0.0 0.00 0.00 0.00 79 1019.4
20260904054801 79 222 0.0 0.0 0.00 0.00 0.00 78 1019.6
20260904054702 79 222 0.0 0.0 0.00 0.00 0.00 78 1019.6
20260904054556 79 222 0.0 0.0 0.00 0.00 0.00 78 1019.5
20260904054457 79 222 0.0 0.0 0.00 0.00 0.00 78 1019.6
20260904054356 79 222 0.0 0.0 0.00 0.00 0.00 78 1019.5
20260904054256 79 222 0.0 0.0 0.00 0.00 0.00 78 1019.6
20260904054157 79 222 0.0 0.0 0.00 0.00 0.00 78 1019.6
20260904054054 79 222 0.0 0.0 0.00 0.00 0.00 78 1019.5
20260904053956 79 222 0.0 0.0 0.00 0.00 0.00 78 1019.6
20260904053854 79 222 0.0 0.0 0.00 0.00 0.00 78 1019.5
20260904053753 79 222 0.0 0.0 0.00 0.00 0.00 78 1019.6
20260904053654 79 222 0.0 0.0 0.00 0.00 0.00 78 1019.6
20260904053550 79 222 0.0 0.0 0.00 0.00 0.00 78 1019.5
20260904053448 79 222 0.0 0.0 0.00 0.00 0.00 78 1019.6
20260904053348 79 222 0.0 0.0 0.00 0.00 0.00 78 1019.6
20260904053247 79 222 0.0 0.0 0.00 0.00 0.00 78 1019.7
20260904053147 79 222 0.0 0.0 0.00 0.00 0.00 78 1019.7
20260904053046 79 222 0.0 0.0 0.00 0.00 0.00 78 1019.7
20260904052944 79 222 0.0 0.0 0.00 0.00 0.00 78 1019.6
20260904052842 79 222 0.0 0.0 0.00 0.00 0.00 78 1019.7
20260904052742 79 222 0.0 0.0 0.00 0.00 0.00 78 1019.7
20260904052641 79 222 0.0 0.0 0.00 0.00 0.00 78 1019.8
20260904052540 79 222 0.0 0.0 0.00 0.00 0.00 78 1019.7
20260904052438 79 222 0.0 0.0 0.00 0.00 0.00 78 1019.7
20260904052337 79 222 0.0 0.0 0.00 0.00 0.00 78 1019.7
20260904052234 79 222 0.0 0.0 0.00 0.00 0.00 78 1019.8
20260904052135 79 222 0.0 0.0 0.00 0.00 0.00 78 1019.7
20260904052033 79 222 0.0 0.0 0.00 0.00 0.00 77 1019.7
20260904051930 79 222 0.0 0.0 0.00 0.00 0.00 77 1019.8
20260904051830 79 222 0.0 0.0 0.00 0.00 0.00 78 1019.8
20260904051729 79 222 0.0 0.0 0.00 0.00 0.00 78 1019.8
20260904051629 79 222 0.0 0.0 0.00 0.00 0.00 78 1019.8
20260904051529 79 222 0.0 0.0 0.00 0.00 0.00 78 1019.8
20260904051429 79 222 0.0 0.0 0.00 0.00 0.00 77 1019.8
20260904051324 79 222 0.0 0.0 0.00 0.00 0.00 77 1019.8
20260904051222 79 221 0.0 0.0 0.00 0.00 0.00 77 1019.8
20260904051122 79 221 0.0 0.0 0.00 0.00 0.00 77 1019.8
20260904051022 79 222 0.0 0.0 0.00 0.00 0.00 77 1019.8
20260904050923 79 222 0.0 0.0 0.00 0.00 0.00 77 1019.9
20260904050822 79 222 0.0 0.0 0.00 0.00 0.00 77 1019.9
20260904050722 79 221 0.0 0.0 0.00 0.00 0.00 77 1019.9
20260904050624 79 221 0.0 0.0 0.00 0.00 0.00 77 1019.9
20260904050522 79 222 0.0 0.0 0.00 0.00 0.00 77 1019.9
20260904050423 79 222 0.0 0.0 0.00 0.00 0.00 77 1019.9
20260904050323 79 222 0.0 0.0 0.00 0.00 0.00 77 1019.9
20260904050222 79 221 0.0 0.0 0.00 0.00 0.00 77 1019.9
20260904050123 79 221 0.0 0.0 0.00 0.00 0.00 77 1019.9
20260904050021 79 221 0.0 0.0 0.00 0.00 0.00 77 1019.9
20260904045922 79 221 0.0 0.0 0.00 0.00 0.00 77 1019.9
20260904045818 79 221 0.0 0.0 0.00 0.00 0.00 77 1019.9
20260904045717 79 221 0.0 0.0 0.00 0.00 0.00 77 1020.0
20260904045617 79 221 0.0 0.0 0.00 0.00 0.00 77 1020.0
20260904045514 79 221 0.0 0.0 0.00 0.00 0.00 77 1019.9
20260904045415 79 221 0.0 0.0 0.00 0.00 0.00 77 1019.9
20260904045313 79 221 0.0 0.0 0.00 0.00 0.00 77 1019.9
20260904045211 79 221 0.0 0.0 0.00 0.00 0.00 77 1019.9
20260904045110 79 221 0.0 0.0 0.00 0.00 0.00 77 1019.9
20260904045010 79 221 0.0 0.0 0.00 0.00 0.00 77 1020.0
20260904044909 79 221 0.0 0.0 0.00 0.00 0.00 77 1020.0
20260904044808 79 221 0.0 0.0 0.00 0.00 0.00 77 1020.0
20260904044708 79 221 0.0 0.0 0.00 0.00 0.00 77 1020.0
20260904044602 79 221 0.0 0.0 0.00 0.00 0.00 77 1019.9
20260904044503 79 221 0.0 0.0 0.00 0.00 0.00 77 1020.0
20260904044402 79 221 0.0 0.0 0.00 0.00 0.00 77 1020.0
20260904044304 79 221 0.0 0.0 0.00 0.00 0.00 77 1019.9
20260904044202 79 221 0.0 0.0 0.00 0.00 0.00 77 1019.9
20260904044058 79 221 0.0 0.0 0.00 0.00 0.00 77 1019.9
20260904043957 79 221 0.0 0.0 0.00 0.00 0.00 77 1019.9
20260904043856 79 221 0.0 0.0 0.00 0.00 0.00 77 1020.0
20260904043756 79 221 0.0 0.0 0.00 0.00 0.00 77 1019.9
20260904043657 79 221 0.0 0.0 0.00 0.00 0.00 77 1019.9
20260904043554 79 221 0.0 0.0 0.00 0.00 0.00 77 1019.9
20260904043451 79 221 0.0 0.0 0.00 0.00 0.00 77 1020.0
20260904043350 79 221 0.0 0.0 0.00 0.00 0.00 77 1020.0
20260904043249 79 221 0.0 0.0 0.00 0.00 0.00 77 1020.0
20260904043146 79 221 0.0 0.0 0.00 0.00 0.00 77 1020.0
20260904043040 79 221 0.0 0.0 0.00 0.00 0.00 77 1020.0
20260904042941 79 221 0.0 0.0 0.00 0.00 0.00 77 1020.0
20260904042841 79 221 0.0 0.0 0.00 0.00 0.00 77 1020.0
20260904042740 79 221 0.0 0.0 0.00 0.00 0.00 77 1019.9
20260904042641 79 221 0.0 0.0 0.00 0.00 0.00 77 1020.0
20260904042537 79 221 0.0 0.0 0.00 0.00 0.00 77 1019.9
20260904042435 79 221 0.0 0.0 0.00 0.00 0.00 77 1020.0
20260904042334 79 221 0.0 0.0 0.00 0.00 0.00 77 1020.0
20260904042233 79 221 0.0 0.0 0.00 0.00 0.00 77 1020.0
20260904042134 79 221 0.0 0.0 0.00 0.00 0.00 77 1019.9
20260904042030 79 221 0.0 0.0 0.00 0.00 0.00 77 1019.9
20260904041930 79 221 0.0 0.0 0.00 0.00 0.00 77 1019.9
20260904041828 79 221 0.0 0.0 0.00 0.00 0.00 77 1020.0
20260904041727 79 221 0.0 0.0 0.00 0.00 0.00 77 1019.9
20260904041625 79 221 0.0 0.0 0.00 0.00 0.00 77 1020.0
20260904041525 79 221 0.0 0.0 0.00 0.00 0.00 77 1019.9
20260904041422 79 221 0.0 0.0 0.00 0.00 0.00 77 1019.9
20260904041324 79 221 0.0 0.0 0.00 0.00 0.00 77 1019.9
20260904041221 79 221 0.0 0.0 0.00 0.00 0.00 77 1020.0
20260904041118 79 221 0.0 0.0 0.00 0.00 0.00 77 1019.9
20260904041019 79 221 0.0 0.0 0.00 0.00 0.00 77 1019.9
20260904040916 79 221 0.0 0.0 0.00 0.00 0.00 77 1019.9
20260904040816 80 221 0.0 0.0 0.00 0.00 0.00 77 1019.9
20260904040715 79 221 0.0 0.0 0.00 0.00 0.00 77 1019.9
20260904040614 80 221 0.0 0.0 0.00 0.00 0.00 77 1019.9
20260904040515 80 221 0.0 0.0 0.00 0.00 0.00 77 1019.9
20260904040414 79 221 0.0 0.0 0.00 0.00 0.00 77 1020.0
20260904040315 80 221 0.0 0.0 0.00 0.00 0.00 77 1020.0
20260904040211 80 221 0.0 0.0 0.00 0.00 0.00 77 1019.8
20260904040109 80 221 0.0 0.0 0.00 0.00 0.00 77 1019.9
20260904040010 80 221 0.0 0.0 0.00 0.00 0.00 77 1019.9
20260904035909 80 221 0.0 0.0 0.00 0.00 0.00 77 1020.0
20260904035809 80 221 0.0 0.0 0.00 0.00 0.00 77 1020.0
20260904035709 80 221 0.0 0.0 0.00 0.00 0.00 77 1020.0
20260904035608 80 221 0.0 0.0 0.00 0.00 0.00 77 1020.2
20260904035510 80 221 0.0 0.0 0.00 0.00 0.00 77 1020.0
20260904035408 80 221 0.0 0.0 0.00 0.00 0.00 77 1020.0
20260904035308 80 221 0.0 0.0 0.00 0.00 0.00 77 1020.0
20260904035210 80 221 0.0 0.0 0.00 0.00 0.00 77 1020.2
20260904035108 80 221 0.0 0.0 0.00 0.00 0.00 77 1020.0
20260904035008 80 221 0.0 0.0 0.00 0.00 0.00 77 1019.9
20260904034910 80 221 0.0 0.0 0.00 0.00 0.00 77 1020.0
20260904034808 80 221 0.0 0.0 0.00 0.00 0.00 77 1020.0
20260904034710 80 221 0.0 0.0 0.00 0.00 0.00 77 1020.0
20260904034602 80 221 0.0 0.0 0.00 0.00 0.00 77 1020.0
20260904034501 80 221 0.0 0.0 0.00 0.00 0.00 77 1020.0
20260904034400 80 221 0.0 0.0 0.00 0.00 0.00 77 1020.2
20260904034301 80 221 0.0 0.0 0.00 0.00 0.00 77 1020.0
20260904034202 80 221 0.0 0.0 0.00 0.00 0.00 77 1020.2
20260904034100 80 221 0.0 0.0 0.00 0.00 0.00 77 1020.0
20260904034001 80 221 0.0 0.0 0.00 0.00 0.00 77 1020.2
20260904033900 80 221 0.0 0.0 0.00 0.00 0.00 77 1020.2
20260904033801 80 221 0.0 0.0 0.00 0.00 0.00 77 1020.2
20260904033700 80 221 0.0 0.0 0.00 0.00 0.00 77 1020.2
20260904033600 80 221 0.0 0.0 0.00 0.00 0.00 77 1020.2
20260904033500 80 221 0.0 0.0 0.00 0.00 0.00 77 1020.2
20260904033400 80 221 0.0 0.0 0.00 0.00 0.00 77 1020.2
20260904033301 80 221 0.0 0.0 0.00 0.00 0.00 77 1020.3
20260904033200 80 221 0.0 0.0 0.00 0.00 0.00 77 1020.3
20260904033101 80 221 0.0 0.0 0.00 0.00 0.00 77 1020.3
20260904033000 80 221 0.0 0.0 0.00 0.00 0.00 77 1020.2
20260904032900 80 221 0.0 0.0 0.00 0.00 0.00 77 1020.2
20260904032800 80 221 0.0 0.0 0.00 0.00 0.00 77 1020.2
20260904032702 80 221 0.0 0.0 0.00 0.00 0.00 76 1020.2
20260904032600 80 221 0.0 0.0 0.00 0.00 0.00 76 1020.2
20260904032501 80 221 0.0 0.0 0.00 0.00 0.00 76 1020.2
20260904032400 80 221 0.0 0.0 0.00 0.00 0.00 76 1020.3
20260904032300 80 221 0.0 0.0 0.00 0.00 0.00 76 1020.2
20260904032202 80 221 0.0 0.0 0.00 0.00 0.00 76 1020.2
20260904032102 80 221 0.0 0.0 0.00 0.00 0.00 76 1020.2
20260904032001 80 221 0.0 0.0 0.00 0.00 0.00 76 1020.2
20260904031900 80 221 0.0 0.0 0.00 0.00 0.00 76 1020.2
20260904031801 80 221 0.0 0.0 0.00 0.00 0.00 76 1020.3
20260904031701 80 221 0.0 0.0 0.00 0.00 0.00 76 1020.3
20260904031602 80 221 0.0 0.0 0.00 0.00 0.00 76 1020.3
20260904031500 80 221 0.0 0.0 0.00 0.00 0.00 76 1020.4
20260904031401 80 221 0.0 0.0 0.00 0.00 0.00 76 1020.3
20260904031256 80 221 0.0 0.0 0.00 0.00 0.00 76 1020.3
20260904031158 80 221 0.0 0.0 0.00 0.00 0.00 76 1020.3
20260904031057 80 221 0.0 0.0 0.00 0.00 0.00 76 1020.3
20260904030958 80 221 0.0 0.0 0.00 0.00 0.00 76 1020.2
20260904030857 80 221 0.0 0.0 0.00 0.00 0.00 76 1020.2
20260904030758 80 221 0.0 0.0 0.00 0.00 0.00 76 1020.2
20260904030657 80 221 0.0 0.0 0.00 0.00 0.00 75 1020.3
20260904030556 80 221 0.0 0.0 0.00 0.00 0.00 75 1020.4
20260904030458 80 221 0.0 0.0 0.00 0.00 0.00 75 1020.4
20260904030356 80 221 0.0 0.0 0.00 0.00 0.00 75 1020.3
20260904030257 80 221 0.0 0.0 0.00 0.00 0.00 75 1020.3
20260904030156 80 220 0.0 0.0 0.00 0.00 0.00 75 1020.2
20260904030056 81 220 0.0 0.0 0.00 0.00 0.00 75 1020.3
20260904025958 80 220 0.0 0.0 0.00 0.00 0.00 75 1020.3
20260904025856 81 220 0.0 0.0 0.00 0.00 0.00 75 1020.4
20260904025756 81 220 0.0 0.0 0.00 0.00 0.00 75 1020.3
20260904025658 81 220 0.0 0.0 0.00 0.00 0.00 74 1020.4
20260904025557 81 220 0.0 0.0 0.00 0.00 0.00 75 1020.3
20260904025457 81 219 0.0 0.0 0.00 0.00 0.00 75 1020.3
20260904025357 81 219 0.0 0.0 0.00 0.00 0.00 75 1020.4
20260904025256 81 219 0.0 0.0 0.00 0.00 0.00 74 1020.4
20260904025152 81 219 0.0 0.0 0.00 0.00 0.00 74 1020.4
20260904025049 81 219 0.0 0.0 0.00 0.00 0.00 74 1020.4
20260904024948 81 219 0.0 0.0 0.00 0.00 0.00 74 1020.4
20260904024848 81 219 0.0 0.0 0.00 0.00 0.00 74 1020.4
20260904024746 81 219 0.0 0.0 0.00 0.00 0.00 74 1020.4
20260904024644 81 219 0.0 0.0 0.00 0.00 0.00 74 1020.3
20260904024543 81 218 0.0 0.0 0.00 0.00 0.00 74 1020.3
20260904024441 81 218 0.0 0.0 0.00 0.00 0.00 74 1020.4
20260904024330 81 218 0.0 0.0 0.00 0.00 0.00 74 1020.5
20260904024231 81 218 0.0 0.0 0.00 0.00 0.00 74 1020.4
20260904024130 81 218 0.0 0.0 0.00 0.00 0.00 73 1020.4
20260904024030 81 219 0.0 0.0 0.00 0.00 0.00 73 1020.4
20260904023930 81 219 0.0 0.0 0.00 0.00 0.00 73 1020.5
20260904023832 81 218 0.0 0.0 0.00 0.00 0.00 73 1020.5
20260904023729 81 218 0.0 0.0 0.00 0.00 0.00 73 1020.5
20260904023629 81 218 0.0 0.0 0.00 0.00 0.00 73 1020.5
20260904023526 81 218 0.0 0.0 0.00 0.00 0.00 73 1020.5
20260904023425 81 218 0.0 0.0 0.00 0.00 0.00 73 1020.5
20260904023324 81 218 0.0 0.0 0.00 0.00 0.00 73 1020.5
20260904023224 81 218 0.0 0.0 0.00 0.00 0.00 73 1020.4
20260904023122 81 217 0.0 0.0 0.00 0.00 0.00 73 1020.4
20260904023021 81 217 0.0 0.0 0.00 0.00 0.00 73 1020.4
20260904022919 81 217 0.0 0.0 0.00 0.00 0.00 73 1020.5
20260904022811 81 217 0.0 0.0 0.00 0.00 0.00 72 1020.4
20260904022709 81 217 0.0 0.0 0.00 0.00 0.00 73 1020.4
20260904022608 81 217 0.0 0.0 0.00 0.00 0.00 72 1020.5
20260904022508 81 217 0.0 0.0 0.00 0.00 0.00 72 1020.4
20260904022408 81 217 0.0 0.0 0.00 0.00 0.00 72 1020.5
20260904022306 81 216 0.0 0.0 0.00 0.00 0.00 72 1020.4
20260904022202 81 215 0.0 0.0 0.00 0.00 0.00 72 1020.4
20260904022102 81 214 0.0 0.0 0.00 0.00 0.00 72 1020.4
20260904022002 81 213 0.0 0.0 0.00 0.00 0.00 72 1020.5
20260904021903 81 213 0.0 0.0 0.00 0.00 0.00 72 1020.4
20260904021802 81 213 0.0 0.0 0.00 0.00 0.00 72 1020.4
20260904021701 81 213 0.0 0.0 0.00 0.00 0.00 72 1020.5
20260904021558 81 213 0.0 0.0 0.00 0.00 0.00 72 1020.5
20260904021500 81 213 0.0 0.0 0.00 0.00 0.00 72 1020.5
20260904021357 81 213 0.0 0.0 0.00 0.00 0.00 72 1020.5
20260904021249 81 213 0.0 0.0 0.00 0.00 0.00 72 1020.5
20260904021147 81 215 0.0 0.0 0.00 0.00 0.00 71 1020.5
20260904021046 81 215 0.0 0.0 0.00 0.00 0.00 71 1020.5
20260904020946 81 214 0.0 0.0 0.00 0.00 0.00 71 1020.4
20260904020846 81 214 0.0 0.0 0.00 0.00 0.00 71 1020.4
20260904020748 81 215 0.0 0.0 0.00 0.00 0.00 71 1020.4
20260904020644 81 215 0.0 0.0 0.00 0.00 0.00 71 1020.4
20260904020546 81 215 0.0 0.0 0.00 0.00 0.00 71 1020.4
20260904020441 81 215 0.0 0.0 0.00 0.00 0.00 71 1020.4
20260904020341 81 215 0.0 0.0 0.00 0.00 0.00 70 1020.5
20260904020240 81 215 0.0 0.0 0.00 0.00 0.00 70 1020.4
20260904020139 81 215 0.0 0.0 0.00 0.00 0.00 70 1020.4
20260904020038 81 215 0.0 0.0 0.00 0.00 0.00 70 1020.4
20260904015937 81 215 0.0 0.0 0.00 0.00 0.00 70 1020.4
20260904015835 81 215 0.0 0.0 0.00 0.00 0.00 70 1020.4
20260904015730 81 215 0.0 0.0 0.00 0.00 0.00 70 1020.4
20260904015629 81 215 0.0 0.0 0.00 0.00 0.00 70 1020.4
20260904015528 81 215 0.0 0.0 0.00 0.00 0.00 70 1020.3
20260904015427 81 215 0.0 0.0 0.00 0.00 0.00 69 1020.3
20260904015325 81 215 0.0 0.0 0.00 0.00 0.00 69 1020.4
20260904015225 81 215 0.0 0.0 0.00 0.00 0.00 69 1020.4
20260904015122 81 216 0.0 0.0 0.00 0.00 0.00 69 1020.4
20260904015024 81 216 0.0 0.0 0.00 0.00 0.00 69 1020.4
20260904014921 81 216 0.0 0.0 0.00 0.00 0.00 69 1020.3
20260904014819 81 217 0.0 0.0 0.00 0.00 0.00 69 1020.4
20260904014716 81 216 0.0 0.0 0.00 0.00 0.00 69 1020.4
20260904014616 81 217 0.0 0.0 0.00 0.00 0.00 69 1020.3
20260904014516 81 213 0.0 0.0 0.00 0.00 0.00 69 1020.3
20260904014414 81 213 0.0 0.0 0.00 0.00 0.00 69 1020.3
20260904014312 81 213 0.0 0.0 0.00 0.00 0.00 69 1020.3
20260904014205 81 213 0.0 0.0 0.00 0.00 0.00 69 1020.3
20260904014102 82 213 0.0 0.0 0.00 0.00 0.00 69 1020.2
20260904014002 81 213 0.0 0.0 0.00 0.00 0.00 69 1020.2
20260904013904 81 213 0.0 0.0 0.00 0.00 0.00 69 1020.2
20260904013802 81 213 0.0 0.0 0.00 0.00 0.00 69 1020.3
20260904013703 81 213 0.0 0.0 0.00 0.00 0.00 69 1020.3
20260904013601 81 213 0.0 0.0 0.00 0.00 0.00 69 1020.2
20260904013500 82 213 0.0 0.0 0.00 0.00 0.00 69 1020.2
20260904013400 81 213 0.0 0.0 0.00 0.00 0.00 69 1020.2
20260904013258 81 213 0.0 0.0 0.00 0.00 0.00 70 1020.2
20260904013157 81 213 0.0 0.0 0.00 0.00 0.00 69 1020.2
20260904013056 81 213 0.0 0.0 0.00 0.00 0.00 69 1020.2
20260904012952 81 213 0.0 0.0 0.00 0.00 0.00 69 1020.2
20260904012853 81 213 0.0 0.0 0.00 0.00 0.00 70 1020.0
20260904012751 81 213 0.0 0.0 0.00 0.00 0.00 70 1020.0
20260904012644 81 212 0.0 0.0 0.00 0.00 0.00 70 1019.9
20260904012544 81 213 0.0 0.0 0.00 0.00 0.00 70 1020.0
20260904012445 81 213 0.0 0.0 0.00 0.00 0.00 70 1020.0
20260904012343 81 213 0.0 0.0 0.00 0.00 0.00 70 1020.0
20260904012241 81 213 0.0 0.0 0.00 0.00 0.00 70 1020.2
20260904012140 81 213 0.0 0.0 0.00 0.00 0.00 70 1020.0
20260904012038 81 213 0.0 0.0 0.00 0.00 0.00 70 1020.0
20260904011939 81 213 0.0 0.0 0.00 0.00 0.00 70 1020.0
20260904011836 81 213 0.0 0.0 0.00 0.00 0.00 70 1020.0
20260904011735 81 213 0.0 0.0 0.00 0.00 0.00 70 1020.0
20260904011634 81 213 0.0 0.0 0.00 0.00 0.00 70 1020.0
20260904011533 81 213 0.0 0.0 0.00 0.00 0.00 71 1020.0
20260904011430 81 213 0.0 0.0 0.00 0.00 0.00 71 1020.0
20260904011331 81 213 0.0 0.0 0.00 0.00 0.00 71 1019.9
20260904011228 81 213 0.0 0.0 0.00 0.00 0.00 71 1019.9
20260904011124 81 213 0.0 0.0 0.00 0.00 0.00 71 1019.9
20260904011022 81 213 0.0 0.0 0.00 0.00 0.00 71 1019.9
20260904010923 81 213 0.0 0.0 0.00 0.00 0.00 71 1019.9
20260904010822 81 213 0.0 0.0 0.00 0.00 0.00 71 1019.8
20260904010719 81 233 0.0 0.0 0.00 0.00 0.00 71 1019.9
20260904010618 82 159 0.0 0.0 0.00 0.00 0.00 71 1019.8
20260904010518 82 155 0.0 0.0 0.00 0.00 0.00 71 1019.8
20260904010416 82 140 0.0 0.0 0.00 0.00 0.00 71 1019.8
20260904010316 82 140 0.0 0.0 0.00 0.00 0.00 71 1019.8
20260904010213 82 140 0.0 0.0 0.00 0.00 0.00 71 1019.8
20260904010107 82 101 0.0 0.0 0.00 0.00 0.00 71 1019.8
20260904010007 82 101 0.0 0.0 0.00 0.00 0.00 71 1019.7
20260904005907 82 101 0.0 0.0 0.00 0.00 0.00 71 1019.8
20260904005806 82 101 0.0 0.0 0.00 0.00 0.00 71 1019.8
20260904005706 82 101 0.0 0.0 0.00 0.00 0.00 71 1019.7
20260904005600 82 101 0.0 0.0 0.00 0.00 0.00 71 1019.7
20260904005500 82 103 0.0 0.0 0.00 0.00 0.00 71 1019.7
20260904005401 82 103 0.0 0.0 0.00 0.00 0.00 71 1019.7
20260904005258 82 104 0.0 0.0 0.00 0.00 0.00 71 1019.7
20260904005157 82 104 0.0 0.0 0.00 0.00 0.00 70 1019.6
20260904005057 82 104 0.0 0.0 0.00 0.00 0.00 71 1019.6
20260904004955 82 104 0.0 0.0 0.00 0.00 0.00 70 1019.7
20260904004855 82 104 0.0 0.0 0.00 0.00 0.00 70 1019.6
20260904004753 82 104 0.0 0.0 0.00 0.00 0.00 70 1019.6
20260904004651 82 104 0.0 0.0 0.00 0.00 0.00 70 1019.7
20260904004551 82 104 0.0 0.0 0.00 0.00 0.00 70 1019.6
20260904004447 82 104 0.0 0.0 0.00 0.00 0.00 70 1019.6
20260904004348 82 104 0.0 0.0 0.00 0.00 0.00 70 1019.6
20260904004248 82 104 0.0 0.0 0.00 0.00 0.00 70 1019.6
20260904004145 82 104 0.0 0.0 0.00 0.00 0.00 69 1019.5
20260904004038 82 104 0.0 0.0 0.00 0.00 0.00 69 1019.5
20260904003938 82 104 0.0 0.0 0.00 0.00 0.00 70 1019.5
20260904003839 82 104 0.0 0.0 0.00 0.00 0.00 70 1019.5
20260904003737 82 104 0.0 0.0 0.00 0.00 0.00 70 1019.5
20260904003635 82 104 0.0 0.0 0.00 0.00 0.00 70 1019.4
20260904003534 82 104 0.0 0.0 0.00 0.00 0.00 70 1019.5
20260904003433 82 104 0.0 0.0 0.00 0.00 0.00 70 1019.5
20260904003332 82 104 0.0 0.0 0.00 0.00 0.00 70 1019.4
20260904003231 83 104 0.0 0.0 0.00 0.00 0.00 70 1019.5
20260904003128 83 104 0.0 0.0 0.00 0.00 0.00 70 1019.4
20260904003028 83 104 0.0 0.0 0.00 0.00 0.00 70 1019.4
20260904002927 83 104 0.0 0.0 0.00 0.00 0.00 70 1019.4
20260904002826 83 104 0.0 0.0 0.00 0.00 0.00 70 1019.4
20260904002725 83 104 0.0 0.0 0.00 0.00 0.00 70 1019.3
20260904002623 83 104 0.0 0.0 0.00 0.00 0.00 70 1019.3
20260904002515 83 104 0.0 0.0 0.00 0.00 0.00 70 1019.2
20260904002416 83 104 0.0 0.0 0.00 0.00 0.00 70 1019.3
20260904002317 83 104 0.0 0.0 0.00 0.00 0.00 70 1019.2
20260904002215 83 104 0.0 0.0 0.00 0.00 0.00 70 1019.2
20260904002113 83 104 0.0 0.0 0.00 0.00 0.00 70 1019.2
20260904002006 83 104 0.0 0.0 0.00 0.00 0.00 70 1019.2
20260904001906 83 104 0.0 0.0 0.00 0.00 0.00 70 1019.1
20260904001806 83 104 0.0 0.0 0.00 0.00 0.00 70 1019.2
20260904001707 83 104 0.0 0.0 0.00 0.00 0.00 70 1019.2
20260904001607 83 104 0.0 0.0 0.00 0.00 0.00 69 1019.1
20260904001502 83 104 0.0 0.0 0.00 0.00 0.00 69 1019.1
20260904001404 83 104 0.0 0.0 0.00 0.00 0.00 69 1019.1
20260904001302 83 104 0.0 0.0 0.00 0.00 0.00 69 1019.1
20260904001203 83 104 0.0 0.0 0.00 0.00 0.00 69 1019.2
20260904001100 83 104 0.0 0.0 0.00 0.00 0.00 69 1019.1
20260904000955 84 104 0.0 0.0 0.00 0.00 0.00 69 1019.1
20260904000854 84 104 0.0 0.0 0.00 0.00 0.00 69 1019.1
20260904000754 84 104 0.0 0.0 0.00 0.00 0.00 69 1019.0
20260904000652 84 104 0.0 0.0 0.00 0.00 0.00 69 1019.0
20260904000551 84 104 0.0 0.0 0.00 0.00 0.00 69 1019.1
20260904000451 84 104 0.0 0.0 0.00 0.00 0.00 69 1018.9
20260904000348 84 104 0.0 0.0 0.00 0.00 0.00 69 1018.9
20260904000249 84 104 0.0 0.0 0.00 0.00 0.00 69 1019.1
20260904000148 84 104 0.0 0.0 0.00 0.00 0.00 69 1019.0
20260904000044 84 104 0.0 0.0 0.00 0.00 0.00 69 1019.1
20260903235939 84 104 0.0 0.0 0.00 0.00 0.00 69 1019.0
20260903235839 84 104 0.0 0.0 0.00 0.00 0.00 69 1019.1
20260903235740 84 104 0.0 0.0 0.00 0.00 0.00 69 1019.1
20260903235639 84 104 0.0 0.0 0.00 0.00 0.00 69 1019.0
20260903235539 84 104 0.0 0.0 0.00 0.00 0.00 69 1019.1
20260903235432 84 104 0.0 0.0 0.00 0.00 0.00 69 1019.0
20260903235333 84 104 0.0 0.0 0.00 0.00 0.00 69 1019.0
20260903235232 84 104 0.0 0.0 0.00 0.00 0.00 69 1019.1
20260903235131 85 104 0.0 0.0 0.00 0.00 0.00 69 1019.0
20260903235029 85 104 0.0 0.0 0.00 0.00 0.00 68 1019.0
20260903234924 85 104 0.0 0.0 0.00 0.00 0.00 69 1019.0
20260903234821 85 104 0.0 0.0 0.00 0.00 0.00 69 1019.0
20260903234722 85 104 0.0 0.0 0.00 0.00 0.00 69 1018.9
20260903234622 85 104 0.0 0.0 0.00 0.00 0.00 69 1018.9
20260903234523 85 104 0.0 0.0 0.00 0.00 0.00 69 1018.9
20260903234419 85 104 0.0 0.0 0.00 0.00 0.00 69 1018.9
20260903234316 85 104 0.0 0.0 0.00 0.00 0.00 69 1018.9
20260903234217 85 104 0.0 0.0 0.00 0.00 0.00 69 1018.9
20260903234116 85 104 0.0 0.0 0.00 0.00 0.00 69 1018.9
20260903234016 85 104 0.0 0.0 0.00 0.00 0.00 69 1018.9
20260903233911 85 104 0.0 0.0 0.00 0.00 0.00 69 1018.8
20260903233811 85 104 0.0 0.0 0.00 0.00 0.00 69 1018.9
20260903233710 85 104 0.0 0.0 0.00 0.00 0.00 68 1018.9
20260903233609 85 104 0.0 0.0 0.00 0.00 0.00 68 1018.9
20260903233507 85 104 0.0 0.0 0.00 0.00 0.00 68 1019.0
20260903233404 85 104 0.0 0.0 0.00 0.00 0.00 68 1018.9
20260903233304 85 104 0.0 0.0 0.00 0.00 0.00 68 1018.9
20260903233204 85 104 0.0 0.0 0.00 0.00 0.00 68 1018.8
20260903233103 85 104 0.0 0.0 0.00 0.00 0.00 67 1018.8
20260903233001 85 104 0.0 0.0 0.00 0.00 0.00 68 1018.8
20260903232900 86 104 0.0 0.0 0.00 0.00 0.00 68 1018.8
20260903232758 86 104 0.0 0.0 0.00 0.00 0.00 67 1018.8
20260903232657 86 104 0.0 0.0 0.00 0.00 0.00 67 1018.9
20260903232557 86 104 0.0 0.0 0.00 0.00 0.00 66 1018.8
20260903232454 86 102 0.0 0.0 0.00 0.00 0.00 66 1018.8
20260903232347 86 102 0.0 0.0 0.00 0.00 0.00 66 1018.8
20260903232246 86 100 0.0 0.0 0.00 0.00 0.00 66 1018.9
20260903232147 86 91 0.0 0.0 0.00 0.00 0.00 66 1018.8
20260903232047 86 91 0.0 0.0 0.00 0.00 0.00 67 1018.8
20260903231945 86 91 0.0 0.0 0.00 0.00 0.00 67 1018.8
20260903231845 86 186 0.0 0.0 0.00 0.00 0.00 67 1018.9
20260903231744 86 186 0.0 0.0 0.00 0.00 0.00 66 1019.0
20260903231641 86 168 0.0 0.0 0.00 0.00 0.00 66 1018.9
20260903231541 86 168 0.0 0.0 0.00 0.00 0.00 67 1018.9
20260903231439 86 168 0.0 0.0 0.00 0.00 0.00 67 1018.9
20260903231335 86 168 0.0 0.0 0.00 0.00 0.00 67 1018.8
20260903231237 86 170 0.0 0.0 0.00 0.00 0.00 67 1018.8
20260903231136 86 170 0.0 0.0 0.00 0.00 0.00 67 1018.9
20260903231035 86 166 0.0 0.0 0.00 0.00 0.00 67 1018.8
20260903230933 86 166 0.0 0.0 0.00 0.00 0.00 67 1018.9
20260903230827 86 166 0.0 0.0 0.00 0.00 0.00 67 1018.9
20260903230725 86 166 0.0 0.0 0.00 0.00 0.00 67 1018.9
20260903230624 86 166 0.0 0.0 0.00 0.00 0.00 67 1018.8
20260903230525 87 166 0.0 0.0 0.00 0.00 0.00 66 1018.9
20260903230423 87 293 0.0 0.0 0.00 0.00 0.00 66 1018.8
20260903230317 87 293 0.0 0.0 0.00 0.00 0.00 66 1018.9
20260903230216 87 293 0.0 0.0 0.00 0.00 0.00 66 1018.9
20260903230116 87 293 0.0 0.0 0.00 0.00 0.00 66 1018.9
20260903230017 87 87 0.0 0.0 0.00 0.00 0.00 66 1018.8
20260903225917 87 87 0.0 0.0 0.00 0.00 0.00 65 1018.9
20260903225816 87 51 0.0 0.0 0.00 0.00 0.00 65 1018.9
20260903225715 87 72 0.0 0.0 0.00 0.00 0.00 66 1018.9
20260903225612 87 72 0.0 0.0 0.00 0.00 0.00 65 1019.0
20260903225513 87 74 0.0 0.0 0.00 0.00 0.00 65 1018.9
20260903225410 87 128 0.0 0.0 0.00 0.00 0.00 65 1019.0
20260903225302 87 132 0.0 0.0 0.00 0.00 0.00 65 1018.9
20260903225203 87 132 0.0 0.0 0.00 0.00 0.00 65 1018.9
20260903225100 87 132 0.0 0.0 0.00 0.00 0.00 65 1018.8
20260903225001 87 132 0.0 0.0 0.00 0.00 0.00 64 1018.8
20260903224858 87 132 0.0 0.0 0.00 0.00 0.00 64 1018.9
20260903224755 87 132 0.0 0.0 0.00 0.00 0.00 64 1018.9
20260903224652 87 132 0.0 0.0 0.00 0.00 0.00 65 1018.9
20260903224554 87 132 0.0 0.0 0.00 0.00 0.00 65 1018.8
20260903224453 87 132 0.0 0.0 0.00 0.00 0.00 65 1018.8
20260903224353 87 132 0.0 0.0 0.00 0.00 0.00 65 1018.9
20260903224249 87 132 0.0 0.0 0.00 0.00 0.00 65 1018.8
20260903224151 87 132 0.0 0.0 0.00 0.00 0.00 64 1018.8
20260903224047 87 132 0.0 0.0 0.00 0.00 0.00 64 1018.8
20260903223949 87 132 0.0 0.0 0.00 0.00 0.00 64 1018.7
20260903223847 87 132 0.0 0.0 0.00 0.00 0.00 64 1018.7
20260903223736 87 132 0.0 0.0 0.00 0.00 0.00 64 1018.7
20260903223636 87 132 0.0 0.0 0.00 0.00 0.00 64 1018.7
20260903223536 87 132 0.0 0.0 0.00 0.00 0.00 64 1018.8
20260903223435 87 132 0.0 0.0 0.00 0.00 0.00 64 1018.7
20260903223332 87 132 0.0 0.0 0.00 0.00 0.00 64 1018.8
20260903223232 87 132 0.0 0.0 0.00 0.00 0.00 64 1018.8
20260903223131 87 132 0.0 0.0 0.00 0.00 0.00 64 1018.8
20260903223030 87 132 0.0 0.0 0.00 0.00 0.00 64 1018.8
20260903222929 87 132 0.0 0.0 0.00 0.00 0.00 63 1018.8
20260903222827 88 132 0.0 0.0 0.00 0.00 0.00 65 1018.8
20260903222727 88 132 0.0 0.0 0.00 0.00 0.00 64 1018.8
20260903222625 88 132 0.0 0.0 0.00 0.00 0.00 63 1018.8
20260903222522 88 132 0.0 0.0 0.00 0.00 0.00 64 1018.7
20260903222424 88 132 0.0 0.0 0.00 0.00 0.00 64 1018.9
20260903222320 88 132 0.0 0.0 0.00 0.00 0.00 65 1018.8
20260903222205 88 132 0.0 0.0 0.00 0.00 0.00 65 1018.8
20260903222107 88 132 0.0 0.0 0.00 0.00 0.00 64 1018.8
20260903222006 88 132 0.0 0.0 0.00 0.00 0.00 64 1018.8
20260903221907 88 132 0.0 0.0 0.00 0.00 0.00 64 1018.7
20260903221806 88 132 0.0 0.0 0.00 0.00 0.00 64 1018.8
20260903221701 88 132 0.0 0.0 0.00 0.00 0.00 64 1018.8
20260903221602 88 132 0.0 0.0 0.00 0.00 0.00 63 1018.9
20260903221503 88 132 0.0 0.0 0.00 0.00 0.00 63 1018.8
20260903221403 88 132 0.0 0.0 0.00 0.00 0.00 63 1018.8
20260903221301 88 132 0.0 0.0 0.00 0.00 0.00 63 1018.8
20260903221201 88 132 0.0 0.0 0.00 0.00 0.00 63 1018.8
20260903221058 88 132 0.0 0.0 0.00 0.00 0.00 63 1018.8
20260903220958 89 132 0.0 0.0 0.00 0.00 0.00 63 1018.8
20260903220857 89 132 0.0 0.0 0.00 0.00 0.00 62 1018.8
20260903220754 89 132 0.0 0.0 0.00 0.00 0.00 63 1018.8
20260903220644 89 132 0.0 0.0 0.00 0.00 0.00 62 1018.8
20260903220545 89 132 0.0 0.0 0.00 0.00 0.00 62 1018.8
20260903220444 89 132 0.0 0.0 0.00 0.00 0.00 62 1018.7
20260903220343 89 132 0.0 0.0 0.00 0.00 0.00 62 1018.8
20260903220241 89 132 0.0 0.0 0.00 0.00 0.00 63 1018.8
20260903220137 89 132 0.0 0.0 0.00 0.00 0.00 63 1018.8
20260903220035 89 132 0.0 0.0 0.00 0.00 0.00 63 1018.8
20260903215934 89 132 0.0 0.0 0.00 0.00 0.00 62 1018.9
20260903215834 89 132 0.0 0.0 0.00 0.00 0.00 62 1018.8
20260903215734 89 132 0.0 0.0 0.00 0.00 0.00 62 1018.8
20260903215631 89 132 0.0 0.0 0.00 0.00 0.00 63 1018.9
20260903215532 89 132 0.0 0.0 0.00 0.00 0.00 63 1018.9
20260903215431 89 132 0.0 0.0 0.00 0.00 0.00 62 1018.8
20260903215330 89 132 0.0 0.0 0.00 0.00 0.00 62 1018.9
20260903215228 89 132 0.0 0.0 0.00 0.00 0.00 63 1018.9
20260903215121 89 132 0.0 0.0 0.00 0.00 0.00 62 1018.8
20260903215022 89 132 0.0 0.0 0.00 0.00 0.00 63 1018.9
20260903214923 89 132 0.0 0.0 0.00 0.00 0.00 63 1018.9
20260903214820 89 132 0.0 0.0 0.00 0.00 0.00 62 1018.9
20260903214719 89 132 0.0 0.0 0.00 0.00 0.00 63 1018.8
20260903214618 89 132 0.0 0.0 0.00 0.00 0.00 65 1018.8
20260903214516 89 132 0.0 0.0 0.00 0.00 0.00 65 1018.9
20260903214416 89 132 0.0 0.0 0.00 0.00 0.00 65 1018.8
20260903214315 89 132 0.0 0.0 0.00 0.00 0.00 64 1018.9
20260903214213 89 132 0.0 0.0 0.00 0.00 0.00 65 1018.9
20260903214105 89 132 0.0 0.0 0.00 0.00 0.00 66 1018.9
20260903214006 89 132 0.0 0.0 0.00 0.00 0.00 64 1018.9
20260903213907 89 132 0.0 0.0 0.00 0.00 0.00 65 1018.9
20260903213807 89 132 0.0 0.0 0.00 0.00 0.00 65 1018.9
20260903213706 89 132 0.0 0.0 0.00 0.00 0.00 64 1019.0
20260903213559 89 132 0.0 0.0 0.00 0.00 0.00 64 1019.0
20260903213457 89 132 0.0 0.0 0.00 0.00 0.00 64 1019.0
20260903213356 89 132 0.0 0.0 0.00 0.00 0.00 64 1019.0
20260903213256 89 132 0.0 0.0 0.00 0.00 0.00 65 1019.0
20260903213157 89 132 0.0 0.0 0.00 0.00 0.00 65 1019.0
20260903213052 89 132 0.0 0.0 0.00 0.00 0.00 64 1019.0
20260903212951 89 132 0.0 0.0 0.00 0.00 0.00 64 1019.0
20260903212852 89 132 0.0 0.0 0.00 0.00 0.00 64 1019.0
20260903212753 89 132 0.0 0.0 0.00 0.00 0.00 63 1019.0
20260903212651 89 132 0.0 0.0 0.00 0.00 0.00 64 1019.0
20260903212545 89 132 0.0 0.0 0.00 0.00 0.00 64 1019.0
20260903212447 89 123 0.0 0.0 0.00 0.00 0.00 66 1019.0
20260903212346 89 121 0.0 0.0 0.00 0.00 0.00 67 1019.1
20260903212247 89 121 0.0 0.0 0.00 0.00 0.00 67 1019.0
20260903212145 89 121 0.0 0.0 0.00 0.00 0.00 66 1019.0
20260903212039 89 121 0.0 0.0 0.00 0.00 0.00 67 1019.1
20260903211939 89 121 0.0 0.0 0.00 0.00 0.00 66 1019.0
20260903211839 89 121 0.0 0.0 0.00 0.00 0.00 66 1019.1
20260903211736 88 121 0.0 0.0 0.00 0.00 0.00 66 1019.0
20260903211634 88 121 0.0 0.0 0.00 0.00 0.00 66 1019.0
20260903211535 88 121 0.0 0.0 0.00 0.00 0.00 65 1019.0
20260903211432 88 122 0.0 0.0 0.00 0.00 0.00 65 1019.1
20260903211333 88 126 0.0 0.0 0.00 0.00 0.00 66 1019.1
20260903211230 88 126 0.0 0.0 0.00 0.00 0.00 67 1019.1
20260903211129 88 126 0.0 0.0 0.00 0.00 0.00 66 1019.1
20260903211025 88 126 0.0 0.0 0.00 0.00 0.00 64 1019.1
20260903210923 88 126 0.0 0.0 0.00 0.00 0.00 66 1019.1
20260903210824 88 126 0.0 0.0 0.00 0.00 0.00 67 1019.1
20260903210725 88 126 0.0 0.0 0.00 0.00 0.00 66 1019.2
20260903210623 88 126 0.0 0.0 0.00 0.00 0.00 68 1019.1
20260903210513 88 126 0.0 0.0 0.00 0.00 0.00 67 1019.2
20260903210412 88 126 0.0 0.0 0.00 0.00 0.00 65 1019.2
20260903210314 88 126 0.0 0.0 0.00 0.00 0.00 67 1019.2
20260903210213 88 126 0.0 0.0 0.00 0.00 0.00 65 1019.2